K5VW Weather Reports


Display with metric or nautical units.
time (UTC)temp
F
wind
direction
speed
MPH
gust
MPH
rain 1hr
in
rain 24hr
in
rain mn
in
humidity
%
barometer
mb
20260506025520 70 213 0.0 2.0 0.00 0.00 0.00 36 1005.8
20260506025411 70 223 0.0 2.0 0.00 0.00 0.00 36 1005.8
20260506025311 70 223 0.0 2.0 0.00 0.00 0.00 36 1005.8
20260506025211 70 219 0.0 2.0 0.00 0.00 0.00 36 1005.8
20260506025059 70 217 0.0 2.0 0.00 0.00 0.00 36 1005.8
20260506024958 70 197 0.0 2.0 0.00 0.00 0.00 36 1005.9
20260506024847 70 188 0.0 2.0 0.00 0.00 0.00 36 1005.9
20260506024752 70 222 0.0 1.0 0.00 0.00 0.00 36 1005.9
20260506024650 71 208 0.0 1.0 0.00 0.00 0.00 35 1005.9
20260506024542 71 213 0.0 2.0 0.00 0.00 0.00 35 1005.9
20260506024438 71 217 0.0 2.0 0.00 0.00 0.00 35 1005.9
20260506024341 71 223 0.0 2.0 0.00 0.00 0.00 35 1005.9
20260506024244 71 223 0.0 2.0 0.00 0.00 0.00 35 1005.8
20260506024110 71 223 0.0 4.0 0.00 0.00 0.00 35 1005.9
20260506024013 71 227 0.0 4.0 0.00 0.00 0.00 35 1005.9
20260506023912 71 227 0.0 4.0 0.00 0.00 0.00 35 1005.9
20260506023810 71 229 0.0 4.0 0.00 0.00 0.00 35 1005.9
20260506023704 71 225 1.0 4.0 0.00 0.00 0.00 35 1005.9
20260506023556 71 242 1.0 4.0 0.00 0.00 0.00 35 1005.9
20260506023506 71 250 1.0 4.0 0.00 0.00 0.00 35 1005.9
20260506023349 71 210 1.0 4.0 0.00 0.00 0.00 35 1005.9
20260506023243 71 234 1.0 4.0 0.00 0.00 0.00 34 1005.9
20260506023133 71 173 1.0 5.0 0.00 0.00 0.00 34 1005.9
20260506023036 71 219 1.0 5.0 0.00 0.00 0.00 35 1005.9
20260506022937 71 210 1.0 5.0 0.00 0.00 0.00 35 1005.9
20260506022834 71 212 1.0 7.0 0.00 0.00 0.00 35 1005.9
20260506022735 71 195 1.0 7.0 0.00 0.00 0.00 34 1005.7
20260506022632 71 228 1.0 7.0 0.00 0.00 0.00 34 1005.7
20260506022530 71 236 1.0 7.0 0.00 0.00 0.00 34 1005.7
20260506022425 71 209 1.0 7.0 0.00 0.00 0.00 34 1005.7
20260506022321 71 229 2.0 7.0 0.00 0.00 0.00 34 1005.7
20260506022222 71 211 2.0 7.0 0.00 0.00 0.00 34 1005.7
20260506022123 72 221 2.0 7.0 0.00 0.00 0.00 34 1005.7
20260506022018 72 207 1.0 7.0 0.00 0.00 0.00 34 1005.8
20260506021916 72 229 1.0 7.0 0.00 0.00 0.00 34 1005.8
20260506021820 72 221 1.0 5.0 0.00 0.00 0.00 34 1005.8
20260506021719 72 189 2.0 7.0 0.00 0.00 0.00 34 1005.8
20260506021614 72 244 2.0 7.0 0.00 0.00 0.00 33 1005.8
20260506021513 72 237 2.0 7.0 0.00 0.00 0.00 33 1005.8
20260506021413 72 209 2.0 7.0 0.00 0.00 0.00 33 1005.8
20260506021310 72 242 2.0 7.0 0.00 0.00 0.00 33 1005.8
20260506021206 72 260 2.0 7.0 0.00 0.00 0.00 33 1006.2
20260506021110 72 248 2.0 7.0 0.00 0.00 0.00 33 1006.2
20260506021010 72 246 3.0 7.0 0.00 0.00 0.00 33 1006.2
20260506020906 72 249 3.0 7.0 0.00 0.00 0.00 33 1006.2
20260506020802 72 231 3.0 7.0 0.00 0.00 0.00 33 1006.2
20260506020712 72 238 2.0 7.0 0.00 0.00 0.00 33 1006.2
20260506020606 72 227 3.0 7.0 0.00 0.00 0.00 33 1006.2
20260506020500 72 236 3.0 7.0 0.00 0.00 0.00 32 1006.2
20260506020357 73 221 3.0 7.0 0.00 0.00 0.00 32 1006.4
20260506020255 73 230 3.0 8.0 0.00 0.00 0.00 32 1006.4
20260506020151 73 262 3.0 8.0 0.00 0.00 0.00 32 1006.4
20260506020051 73 236 3.0 8.0 0.00 0.00 0.00 32 1006.4
20260506015948 73 246 3.0 8.0 0.00 0.00 0.00 32 1006.4
20260506015846 73 235 3.0 8.0 0.00 0.00 0.00 32 1006.4
20260506015748 73 234 3.0 8.0 0.00 0.00 0.00 31 1006.5
20260506015645 73 227 3.0 8.0 0.00 0.00 0.00 31 1006.4
20260506015540 73 222 3.0 8.0 0.00 0.00 0.00 31 1006.4
20260506015444 73 234 3.0 8.0 0.00 0.00 0.00 31 1006.4
20260506015337 73 226 4.0 8.0 0.00 0.00 0.00 31 1006.4
20260506015242 73 219 4.0 8.0 0.00 0.00 0.00 31 1006.4
20260506015142 73 212 4.0 8.0 0.00 0.00 0.00 31 1006.5
20260506015041 74 232 4.0 8.0 0.00 0.00 0.00 31 1006.5
20260506014934 74 232 4.0 8.0 0.00 0.00 0.00 31 1006.5
20260506014837 74 122 4.0 9.0 0.00 0.00 0.00 31 1006.5
20260506014737 74 224 4.0 9.0 0.00 0.00 0.00 30 1006.5
20260506014632 74 230 4.0 9.0 0.00 0.00 0.00 30 1006.5
20260506014535 74 219 4.0 9.0 0.00 0.00 0.00 30 1006.5
20260506014425 74 247 4.0 10.0 0.00 0.00 0.00 30 1006.5
20260506014321 74 257 4.0 10.0 0.00 0.00 0.00 30 1006.6
20260506014216 74 231 4.0 10.0 0.00 0.00 0.00 30 1006.2
20260506014110 74 221 5.0 10.0 0.00 0.00 0.00 30 1006.2
20260506014007 74 193 5.0 10.0 0.00 0.00 0.00 29 1006.2
20260506013909 74 231 4.0 10.0 0.00 0.00 0.00 29 1006.4
20260506013810 74 212 4.0 10.0 0.00 0.00 0.00 29 1006.4
20260506013708 74 212 5.0 10.0 0.00 0.00 0.00 29 1006.4
20260506013611 74 225 5.0 11.0 0.00 0.00 0.00 29 1006.4
20260506013514 75 243 5.0 11.0 0.00 0.00 0.00 29 1006.4
20260506013411 75 165 5.0 11.0 0.00 0.00 0.00 29 1006.4
20260506013302 75 215 5.0 11.0 0.00 0.00 0.00 29 1006.4
20260506013206 75 213 5.0 11.0 0.00 0.00 0.00 29 1006.4
20260506013102 75 238 5.0 11.0 0.00 0.00 0.00 29 1006.4
20260506013005 75 238 5.0 11.0 0.00 0.00 0.00 29 1006.4
20260506012854 75 242 5.0 11.0 0.00 0.00 0.00 29 1006.4
20260506012748 75 222 5.0 11.0 0.00 0.00 0.00 29 1006.5
20260506012653 75 217 5.0 11.0 0.00 0.00 0.00 28 1006.6
20260506012553 75 227 4.0 10.0 0.00 0.00 0.00 28 1006.6
20260506012452 75 245 4.0 10.0 0.00 0.00 0.00 28 1006.6
20260506012336 75 213 4.0 10.0 0.00 0.00 0.00 28 1006.6
20260506012237 75 190 5.0 10.0 0.00 0.00 0.00 28 1006.6
20260506012134 75 238 4.0 10.0 0.00 0.00 0.00 28 1006.6
20260506012040 75 215 4.0 14.0 0.00 0.00 0.00 28 1006.6
20260506011937 75 223 4.0 14.0 0.00 0.00 0.00 28 1006.6
20260506011831 75 275 5.0 14.0 0.00 0.00 0.00 28 1006.6
20260506011730 75 250 5.0 14.0 0.00 0.00 0.00 28 1006.7
20260506011625 75 261 5.0 14.0 0.00 0.00 0.00 27 1006.7
20260506011526 76 268 5.0 14.0 0.00 0.00 0.00 27 1006.7
20260506011425 76 288 5.0 14.0 0.00 0.00 0.00 27 1006.7
20260506011328 76 204 5.0 14.0 0.00 0.00 0.00 27 1006.7
20260506011217 76 250 5.0 14.0 0.00 0.00 0.00 27 1006.9
20260506011126 76 276 5.0 11.0 0.00 0.00 0.00 27 1006.9
20260506011022 76 277 6.0 11.0 0.00 0.00 0.00 27 1006.9
20260506010916 76 212 6.0 13.0 0.00 0.00 0.00 27 1006.9
20260506010818 76 204 6.0 13.0 0.00 0.00 0.00 27 1006.9
20260506010712 76 259 6.0 13.0 0.00 0.00 0.00 27 1006.9
20260506010615 76 257 6.0 13.0 0.00 0.00 0.00 27 1006.9
20260506010509 76 221 7.0 14.0 0.00 0.00 0.00 27 1006.9
20260506010410 76 252 7.0 14.0 0.00 0.00 0.00 27 1006.9
20260506010310 76 187 8.0 14.0 0.00 0.00 0.00 27 1007.0
20260506010213 76 273 8.0 14.0 0.00 0.00 0.00 27 1007.0
20260506010114 76 244 8.0 14.0 0.00 0.00 0.00 27 1007.0
20260506010010 76 261 8.0 15.0 0.00 0.00 0.00 26 1007.0
20260506005903 76 243 8.0 15.0 0.00 0.00 0.00 26 1007.0
20260506005807 76 279 8.0 15.0 0.00 0.00 0.00 26 1007.0
20260506005709 76 222 9.0 15.0 0.00 0.00 0.00 26 1007.0
20260506005555 76 249 9.0 16.0 0.00 0.00 0.00 26 1007.0
20260506005453 76 229 9.0 16.0 0.00 0.00 0.00 26 1007.0
20260506005401 76 209 9.0 16.0 0.00 0.00 0.00 26 1007.0
20260506005255 76 199 9.0 16.0 0.00 0.00 0.00 26 1007.0
20260506005201 76 226 9.0 16.0 0.00 0.00 0.00 26 1007.0
20260506005055 76 221 9.0 20.0 0.00 0.00 0.00 26 1007.0
20260506004955 76 280 9.0 20.0 0.00 0.00 0.00 26 1007.0
20260506004856 76 244 9.0 20.0 0.00 0.00 0.00 26 1007.0
20260506004747 76 244 9.0 20.0 0.00 0.00 0.00 26 1007.0
20260506004646 76 194 9.0 20.0 0.00 0.00 0.00 26 1007.1
20260506004544 77 238 9.0 20.0 0.00 0.00 0.00 26 1007.1
20260506004441 77 250 9.0 20.0 0.00 0.00 0.00 26 1007.1
20260506004349 77 264 9.0 20.0 0.00 0.00 0.00 26 1007.1
20260506004237 77 277 10.0 20.0 0.00 0.00 0.00 25 1007.1
20260506004136 77 248 10.0 20.0 0.00 0.00 0.00 25 1006.9
20260506004039 77 227 10.0 20.0 0.00 0.00 0.00 26 1006.9
20260506003941 77 243 10.0 20.0 0.00 0.00 0.00 26 1006.9
20260506003835 77 247 10.0 20.0 0.00 0.00 0.00 26 1006.9
20260506003732 77 270 10.0 20.0 0.00 0.00 0.00 26 1006.9
20260506003636 77 271 11.0 20.0 0.00 0.00 0.00 25 1006.9
20260506003531 77 268 11.0 20.0 0.00 0.00 0.00 25 1006.9
20260506003435 77 279 10.0 20.0 0.00 0.00 0.00 26 1006.9
20260506003323 77 273 10.0 20.0 0.00 0.00 0.00 26 1006.9
20260506003230 77 263 10.0 20.0 0.00 0.00 0.00 26 1006.9
20260506003119 77 284 10.0 19.0 0.00 0.00 0.00 26 1006.9
20260506003020 77 248 9.0 19.0 0.00 0.00 0.00 26 1006.9
20260506002925 77 253 9.0 19.0 0.00 0.00 0.00 26 1006.9
20260506002810 77 216 9.0 19.0 0.00 0.00 0.00 26 1006.9
20260506002709 77 281 9.0 19.0 0.00 0.00 0.00 26 1007.0
20260506002611 77 257 9.0 19.0 0.00 0.00 0.00 26 1007.0
20260506002508 77 246 10.0 21.0 0.00 0.00 0.00 27 1007.0
20260506002412 77 238 10.0 22.0 0.00 0.00 0.00 27 1006.9
20260506002314 77 265 10.0 22.0 0.00 0.00 0.00 27 1006.9
20260506002211 77 233 10.0 22.0 0.00 0.00 0.00 26 1006.9
20260506002111 77 282 10.0 22.0 0.00 0.00 0.00 26 1006.9
20260506002003 77 222 10.0 22.0 0.00 0.00 0.00 26 1006.9
20260506001904 77 259 11.0 22.0 0.00 0.00 0.00 26 1006.9
20260506001759 77 252 11.0 22.0 0.00 0.00 0.00 26 1006.9
20260506001713 77 238 11.0 29.0 0.00 0.00 0.00 26 1006.9
20260506001557 77 259 11.0 29.0 0.00 0.00 0.00 26 1006.9
20260506001458 77 245 10.0 29.0 0.00 0.00 0.00 26 1007.0
20260506001355 77 244 10.0 29.0 0.00 0.00 0.00 26 1007.0
20260506001257 77 279 10.0 29.0 0.00 0.00 0.00 26 1007.0
20260506001155 77 225 11.0 29.0 0.00 0.00 0.00 26 1006.9
20260506001052 77 173 11.0 29.0 0.00 0.00 0.00 26 1006.9
20260506000952 77 234 11.0 29.0 0.00 0.00 0.00 25 1006.9
20260506000857 78 249 11.0 29.0 0.00 0.00 0.00 25 1007.0
20260506000740 78 221 11.0 22.0 0.00 0.00 0.00 25 1007.0
20260506000639 78 254 11.0 22.0 0.00 0.00 0.00 25 1007.0
20260506000540 78 257 11.0 22.0 0.00 0.00 0.00 25 1007.0
20260506000440 78 267 12.0 22.0 0.00 0.00 0.00 25 1007.0
20260506000341 78 232 12.0 22.0 0.00 0.00 0.00 25 1007.0
20260506000240 78 221 12.0 22.0 0.00 0.00 0.00 25 1007.0
20260506000139 78 237 12.0 22.0 0.00 0.00 0.00 25 1007.0
20260506000045 78 252 12.0 22.0 0.00 0.00 0.00 25 1007.0
20260505235938 78 258 12.0 23.0 0.00 0.00 0.00 25 1007.1
20260505235845 78 260 12.0 23.0 0.00 0.00 0.00 25 1007.1
20260505235725 78 230 13.0 23.0 0.00 0.00 0.00 25 1007.0
20260505235627 78 275 13.0 23.0 0.00 0.00 0.00 25 1007.1
20260505235521 79 254 13.0 28.0 0.00 0.00 0.00 25 1007.1
20260505235432 79 277 13.0 28.0 0.00 0.00 0.00 25 1007.1
20260505235320 79 274 13.0 28.0 0.00 0.00 0.00 26 1007.1
20260505235217 79 220 13.0 28.0 0.00 0.00 0.00 26 1007.1
20260505235114 79 321 13.0 28.0 0.00 0.00 0.00 26 1007.1
20260505235015 78 146 13.0 28.0 0.00 0.00 0.00 25 1007.1
20260505234912 78 227 13.0 28.0 0.00 0.00 0.00 25 1007.1
20260505234812 78 242 13.0 28.0 0.00 0.00 0.00 25 1007.1
20260505234706 78 277 13.0 28.0 0.00 0.00 0.00 25 1007.1
20260505234605 78 251 12.0 24.0 0.00 0.00 0.00 25 1007.0
20260505234459 78 209 11.0 23.0 0.00 0.00 0.00 26 1007.0
20260505234403 78 304 11.0 23.0 0.00 0.00 0.00 25 1007.0
20260505234241 78 205 11.0 23.0 0.00 0.00 0.00 26 1007.0
20260505234140 78 179 11.0 23.0 0.00 0.00 0.00 26 1007.1
20260505234042 78 261 11.0 23.0 0.00 0.00 0.00 26 1007.1
20260505233941 78 240 10.0 23.0 0.00 0.00 0.00 26 1007.1
20260505233834 78 254 10.0 22.0 0.00 0.00 0.00 27 1007.1
20260505233732 78 232 10.0 22.0 0.00 0.00 0.00 27 1007.1
20260505233628 78 237 11.0 23.0 0.00 0.00 0.00 27 1007.1
20260505233532 78 239 10.0 23.0 0.00 0.00 0.00 27 1007.0
20260505233433 78 269 11.0 23.0 0.00 0.00 0.00 28 1007.0
20260505233333 77 269 10.0 23.0 0.00 0.00 0.00 28 1007.0
20260505233223 77 265 10.0 23.0 0.00 0.00 0.00 28 1007.0
20260505233123 77 288 10.0 23.0 0.00 0.00 0.00 28 1007.0
20260505233029 77 54 10.0 23.0 0.00 0.00 0.00 28 1006.9
20260505232927 77 238 10.0 23.0 0.00 0.00 0.00 28 1006.9
20260505232821 77 229 10.0 23.0 0.00 0.00 0.00 28 1006.9
20260505232759 77 236 10.0 23.0 0.00 0.00 0.00 28 1006.9
20260505232617 77 271 10.0 19.0 0.00 0.00 0.00 28 1006.9
20260505232514 77 244 10.0 19.0 0.00 0.00 0.00 28 1006.9
20260505232421 77 257 10.0 19.0 0.00 0.00 0.00 28 1006.9
20260505232319 77 289 10.0 19.0 0.00 0.00 0.00 28 1006.9
20260505232218 77 238 10.0 19.0 0.00 0.00 0.00 28 1006.9
20260505232116 77 267 10.0 19.0 0.00 0.00 0.00 28 1006.9
20260505232018 77 220 10.0 19.0 0.00 0.00 0.00 28 1006.9
20260505231911 77 275 9.0 19.0 0.00 0.00 0.00 28 1006.9
20260505231813 77 211 9.0 19.0 0.00 0.00 0.00 28 1007.0
20260505231701 77 240 8.0 19.0 0.00 0.00 0.00 28 1007.0
20260505231603 77 223 8.0 19.0 0.00 0.00 0.00 29 1007.0
20260505231459 77 261 8.0 19.0 0.00 0.00 0.00 29 1007.0
20260505231359 77 180 8.0 19.0 0.00 0.00 0.00 29 1007.0
20260505231300 77 240 9.0 19.0 0.00 0.00 0.00 29 1007.0
20260505231158 78 252 9.0 19.0 0.00 0.00 0.00 28 1007.2
20260505231059 78 301 9.0 19.0 0.00 0.00 0.00 29 1007.2
20260505230958 78 291 9.0 19.0 0.00 0.00 0.00 29 1007.2
20260505230855 78 249 9.0 19.0 0.00 0.00 0.00 29 1007.2
20260505230758 78 249 9.0 19.0 0.00 0.00 0.00 28 1007.4
20260505230653 78 245 9.0 19.0 0.00 0.00 0.00 28 1007.4
20260505230549 78 31 9.0 19.0 0.00 0.00 0.00 29 1007.4
20260505230452 78 274 9.0 19.0 0.00 0.00 0.00 29 1007.4
20260505230339 78 268 9.0 19.0 0.00 0.00 0.00 28 1007.5
20260505230242 79 305 9.0 19.0 0.00 0.00 0.00 28 1007.5
20260505230146 79 234 9.0 20.0 0.00 0.00 0.00 28 1007.5
20260505225931 78 198 9.0 20.0 0.00 0.00 0.00 29 1007.5
20260505225829 78 265 9.0 20.0 0.00 0.00 0.00 29 1007.5
20260505225731 78 242 10.0 20.0 0.00 0.00 0.00 29 1007.7
20260505225633 78 239 10.0 20.0 0.00 0.00 0.00 29 1007.7
20260505225521 78 231 10.0 20.0 0.00 0.00 0.00 29 1007.6
20260505225438 78 263 10.0 21.0 0.00 0.00 0.00 29 1007.6
20260505225311 78 277 10.0 21.0 0.00 0.00 0.00 29 1007.6
20260505225211 77 223 10.0 21.0 0.00 0.00 0.00 30 1007.5
20260505225108 77 224 10.0 21.0 0.00 0.00 0.00 30 1007.5
20260505225009 77 246 10.0 21.0 0.00 0.00 0.00 29 1007.5
20260505224908 77 237 11.0 21.0 0.00 0.00 0.00 29 1007.5
20260505224819 77 86 11.0 23.0 0.00 0.00 0.00 29 1007.4
20260505224708 77 257 10.0 23.0 0.00 0.00 0.00 29 1007.5
20260505224613 77 289 10.0 23.0 0.00 0.00 0.00 29 1007.5
20260505224513 77 237 10.0 23.0 0.00 0.00 0.00 30 1007.5
20260505224405 77 232 10.0 23.0 0.00 0.00 0.00 30 1007.5
20260505224305 77 252 10.0 23.0 0.00 0.00 0.00 30 1007.5
20260505224206 77 266 10.0 23.0 0.00 0.00 0.00 30 1007.5
20260505224105 77 237 11.0 23.0 0.00 0.00 0.00 29 1007.5
20260505224004 77 265 11.0 23.0 0.00 0.00 0.00 29 1007.5
20260505223900 77 241 10.0 23.0 0.00 0.00 0.00 29 1007.5
20260505223754 77 202 10.0 21.0 0.00 0.00 0.00 29 1007.5
20260505223653 77 257 10.0 21.0 0.00 0.00 0.00 30 1007.5
20260505223548 77 265 10.0 21.0 0.00 0.00 0.00 29 1007.5
20260505223444 77 277 10.0 21.0 0.00 0.00 0.00 29 1007.5
20260505223349 77 249 11.0 21.0 0.00 0.00 0.00 29 1007.5
20260505223249 77 257 10.0 20.0 0.00 0.00 0.00 29 1007.5
20260505223152 77 236 11.0 19.0 0.00 0.00 0.00 29 1007.5
20260505223045 77 268 11.0 19.0 0.00 0.00 0.00 29 1007.5
20260505222951 77 257 11.0 20.0 0.00 0.00 0.00 29 1007.5
20260505222848 77 277 12.0 24.0 0.00 0.00 0.00 29 1007.5
20260505222746 77 291 12.0 24.0 0.00 0.00 0.00 29 1007.5
20260505222642 78 242 12.0 24.0 0.00 0.00 0.00 29 1007.0
20260505222544 78 237 12.0 24.0 0.00 0.00 0.00 29 1007.0
20260505222438 78 267 12.0 24.0 0.00 0.00 0.00 29 1007.1
20260505222332 78 260 12.0 24.0 0.00 0.00 0.00 28 1007.0
20260505222231 78 276 12.0 24.0 0.00 0.00 0.00 28 1007.1
20260505222138 78 275 12.0 24.0 0.00 0.00 0.00 28 1007.1
20260505222033 78 261 12.0 24.0 0.00 0.00 0.00 28 1007.1
20260505221932 78 280 11.0 24.0 0.00 0.00 0.00 27 1007.1
20260505221827 78 307 11.0 23.0 0.00 0.00 0.00 27 1007.2
20260505221730 79 280 11.0 23.0 0.00 0.00 0.00 27 1007.2
20260505221629 79 284 11.0 23.0 0.00 0.00 0.00 27 1007.4
20260505221522 79 273 11.0 23.0 0.00 0.00 0.00 27 1007.4
20260505221427 79 263 11.0 23.0 0.00 0.00 0.00 27 1007.5
20260505221323 80 270 11.0 23.0 0.00 0.00 0.00 27 1007.5
20260505221226 80 260 11.0 23.0 0.00 0.00 0.00 28 1007.5
20260505221119 79 258 11.0 22.0 0.00 0.00 0.00 28 1007.4
20260505221053 79 240 11.0 22.0 0.00 0.00 0.00 28 1007.4
20260505220922 79 226 11.0 22.0 0.00 0.00 0.00 27 1007.4
20260505220816 79 246 10.0 22.0 0.00 0.00 0.00 27 1007.4
20260505220709 79 256 10.0 22.0 0.00 0.00 0.00 28 1007.4
20260505220611 79 289 10.0 22.0 0.00 0.00 0.00 28 1007.4
20260505220508 79 261 10.0 22.0 0.00 0.00 0.00 28 1007.4
20260505220402 79 260 10.0 22.0 0.00 0.00 0.00 27 1007.4
20260505220258 79 271 9.0 22.0 0.00 0.00 0.00 28 1007.4
20260505220159 79 229 9.0 22.0 0.00 0.00 0.00 28 1007.4
20260505220058 79 207 8.0 22.0 0.00 0.00 0.00 28 1007.5
20260505220004 79 291 8.0 22.0 0.00 0.00 0.00 27 1007.5
20260505215853 80 223 9.0 22.0 0.00 0.00 0.00 27 1007.5
20260505215742 79 244 10.0 22.0 0.00 0.00 0.00 28 1007.5
20260505215640 79 302 10.0 24.0 0.00 0.00 0.00 28 1007.8
20260505215536 79 291 9.0 24.0 0.00 0.00 0.00 28 1007.8
20260505215439 79 234 9.0 24.0 0.00 0.00 0.00 29 1007.8
20260505215339 79 267 10.0 24.0 0.00 0.00 0.00 29 1007.8
20260505215242 79 298 11.0 24.0 0.00 0.00 0.00 28 1007.7
20260505215137 78 285 11.0 24.0 0.00 0.00 0.00 28 1007.6
20260505215037 78 273 11.0 24.0 0.00 0.00 0.00 28 1007.6
20260505214939 78 194 12.0 24.0 0.00 0.00 0.00 28 1007.6
20260505214837 79 230 12.0 24.0 0.00 0.00 0.00 28 1007.7
20260505214737 79 250 12.0 24.0 0.00 0.00 0.00 28 1007.7
20260505214644 79 301 11.0 24.0 0.00 0.00 0.00 28 1007.7
20260505214539 79 227 11.0 22.0 0.00 0.00 0.00 29 1007.7
20260505214435 79 242 12.0 23.0 0.00 0.00 0.00 28 1007.7
20260505214333 79 238 12.0 23.0 0.00 0.00 0.00 28 1007.7
20260505214238 79 280 11.0 23.0 0.00 0.00 0.00 28 1007.5
20260505214140 79 217 11.0 23.0 0.00 0.00 0.00 28 1007.5
20260505214033 79 234 11.0 23.0 0.00 0.00 0.00 27 1007.5
20260505213935 79 257 12.0 23.0 0.00 0.00 0.00 28 1007.5
20260505213827 79 282 13.0 24.0 0.00 0.00 0.00 28 1007.5
20260505213720 79 265 13.0 24.0 0.00 0.00 0.00 28 1007.5
20260505213616 79 281 13.0 24.0 0.00 0.00 0.00 28 1007.5
20260505213513 79 313 13.0 24.0 0.00 0.00 0.00 28 1007.5
20260505213409 79 284 12.0 24.0 0.00 0.00 0.00 28 1007.5
20260505213314 79 225 13.0 24.0 0.00 0.00 0.00 27 1007.5
20260505213159 79 237 13.0 24.0 0.00 0.00 0.00 28 1007.4
20260505213054 79 262 13.0 24.0 0.00 0.00 0.00 28 1007.5
20260505213000 79 328 13.0 26.0 0.00 0.00 0.00 27 1007.5
20260505212856 79 282 13.0 26.0 0.00 0.00 0.00 27 1007.5
20260505212757 79 278 13.0 26.0 0.00 0.00 0.00 27 1007.5
20260505212654 80 265 13.0 26.0 0.00 0.00 0.00 27 1007.8
20260505212556 79 300 13.0 26.0 0.00 0.00 0.00 27 1007.7
20260505212451 79 221 14.0 26.0 0.00 0.00 0.00 27 1007.7
20260505212345 79 253 15.0 27.0 0.00 0.00 0.00 27 1007.7
20260505212238 79 278 15.0 27.0 0.00 0.00 0.00 27 1007.7
20260505212140 79 283 15.0 27.0 0.00 0.00 0.00 27 1007.7
20260505212037 79 260 16.0 27.0 0.00 0.00 0.00 26 1007.7
20260505211936 79 233 15.0 27.0 0.00 0.00 0.00 27 1007.7
20260505211839 79 294 15.0 27.0 0.00 0.00 0.00 27 1007.7
20260505211739 79 268 15.0 27.0 0.00 0.00 0.00 27 1007.7
20260505211639 79 232 14.0 27.0 0.00 0.00 0.00 26 1007.7
20260505211534 79 247 13.0 27.0 0.00 0.00 0.00 27 1007.7
20260505211439 80 262 13.0 27.0 0.00 0.00 0.00 26 1007.8
20260505211333 80 274 13.0 25.0 0.00 0.00 0.00 26 1007.8
20260505211238 80 269 13.0 25.0 0.00 0.00 0.00 27 1007.2
20260505211130 80 292 13.0 25.0 0.00 0.00 0.00 27 1007.2
20260505211034 80 273 13.0 25.0 0.00 0.00 0.00 27 1007.2
20260505210934 80 227 12.0 25.0 0.00 0.00 0.00 28 1007.1
20260505210831 79 276 13.0 25.0 0.00 0.00 0.00 28 1007.1
20260505210711 79 233 13.0 25.0 0.00 0.00 0.00 26 1007.0
20260505210611 79 270 13.0 25.0 0.00 0.00 0.00 26 1007.1
20260505210511 79 214 13.0 25.0 0.00 0.00 0.00 26 1007.1
20260505210412 80 252 13.0 25.0 0.00 0.00 0.00 26 1007.2
20260505210306 80 235 13.0 24.0 0.00 0.00 0.00 26 1007.2
20260505210206 80 247 13.0 24.0 0.00 0.00 0.00 25 1007.4
20260505210059 80 234 13.0 24.0 0.00 0.00 0.00 26 1007.4
20260505210000 81 297 13.0 24.0 0.00 0.00 0.00 26 1007.4
20260505205901 81 294 13.0 27.0 0.00 0.00 0.00 26 1007.4
20260505205758 81 241 13.0 27.0 0.00 0.00 0.00 26 1007.4
20260505205652 81 233 14.0 27.0 0.00 0.00 0.00 26 1007.1
20260505205555 81 287 14.0 27.0 0.00 0.00 0.00 26 1007.1
20260505205450 81 252 14.0 27.0 0.00 0.00 0.00 25 1007.1
20260505205350 81 244 14.0 27.0 0.00 0.00 0.00 26 1007.1
20260505205254 81 278 13.0 27.0 0.00 0.00 0.00 26 1007.2
20260505205140 81 282 13.0 27.0 0.00 0.00 0.00 26 1007.1
20260505205037 81 250 14.0 27.0 0.00 0.00 0.00 25 1007.1
20260505204939 81 248 14.0 27.0 0.00 0.00 0.00 25 1007.1
20260505204839 81 311 14.0 27.0 0.00 0.00 0.00 25 1007.1
20260505204736 81 261 14.0 27.0 0.00 0.00 0.00 25 1007.1
20260505204637 81 250 14.0 27.0 0.00 0.00 0.00 25 1007.1
20260505204539 80 240 13.0 27.0 0.00 0.00 0.00 25 1007.0
20260505204445 80 318 13.0 27.0 0.00 0.00 0.00 24 1007.0
20260505204341 80 257 13.0 27.0 0.00 0.00 0.00 24 1007.0
20260505204244 81 263 13.0 27.0 0.00 0.00 0.00 24 1007.0
20260505204206 81 243 13.0 27.0 0.00 0.00 0.00 24 1007.1
20260505204137 81 224 12.0 25.0 0.00 0.00 0.00 25 1007.1
20260505203943 81 251 11.0 25.0 0.00 0.00 0.00 25 1007.1
20260505203830 81 315 11.0 24.0 0.00 0.00 0.00 24 1007.0
20260505203723 81 289 11.0 24.0 0.00 0.00 0.00 24 1007.0
20260505203628 81 277 11.0 24.0 0.00 0.00 0.00 24 1007.0
20260505203524 80 225 11.0 24.0 0.00 0.00 0.00 24 1007.0
20260505203435 80 278 11.0 24.0 0.00 0.00 0.00 24 1007.0
20260505203329 81 271 11.0 24.0 0.00 0.00 0.00 24 1007.1
20260505203230 81 257 11.0 26.0 0.00 0.00 0.00 24 1007.1
20260505203129 81 228 11.0 26.0 0.00 0.00 0.00 24 1007.1
20260505203023 81 294 10.0 26.0 0.00 0.00 0.00 24 1007.2
20260505202925 81 263 11.0 26.0 0.00 0.00 0.00 24 1007.2
20260505202821 81 243 11.0 26.0 0.00 0.00 0.00 24 1007.2
20260505202719 81 260 10.0 26.0 0.00 0.00 0.00 24 1007.0
20260505202610 81 271 11.0 26.0 0.00 0.00 0.00 24 1007.0
20260505202509 81 265 11.0 26.0 0.00 0.00 0.00 24 1006.9
20260505202413 81 265 11.0 26.0 0.00 0.00 0.00 24 1006.9
20260505202301 81 213 10.0 26.0 0.00 0.00 0.00 23 1006.9
20260505202204 81 283 10.0 24.0 0.00 0.00 0.00 23 1007.0
20260505202050 81 278 10.0 24.0 0.00 0.00 0.00 24 1007.0
20260505201942 81 234 10.0 21.0 0.00 0.00 0.00 23 1007.0
20260505201845 81 234 10.0 21.0 0.00 0.00 0.00 23 1007.0
20260505201743 81 227 10.0 21.0 0.00 0.00 0.00 23 1007.0
20260505201639 82 271 10.0 21.0 0.00 0.00 0.00 23 1007.1
20260505201538 82 277 11.0 24.0 0.00 0.00 0.00 23 1007.1
20260505201437 82 285 11.0 26.0 0.00 0.00 0.00 23 1007.1
20260505201334 82 236 10.0 26.0 0.00 0.00 0.00 24 1007.1
20260505201236 82 242 10.0 26.0 0.00 0.00 0.00 24 1007.7
20260505201133 82 248 10.0 26.0 0.00 0.00 0.00 23 1007.7
20260505201021 82 239 10.0 26.0 0.00 0.00 0.00 22 1007.7
20260505200955 82 252 10.0 26.0 0.00 0.00 0.00 22 1007.7
20260505200814 82 244 10.0 26.0 0.00 0.00 0.00 23 1007.7
20260505200716 82 289 10.0 26.0 0.00 0.00 0.00 23 1007.7
20260505200614 82 228 9.0 26.0 0.00 0.00 0.00 23 1007.7
20260505200512 82 247 9.0 26.0 0.00 0.00 0.00 23 1007.7
20260505200411 82 252 9.0 26.0 0.00 0.00 0.00 23 1007.7
20260505200312 82 296 9.0 26.0 0.00 0.00 0.00 23 1007.7
20260505200213 81 252 9.0 26.0 0.00 0.00 0.00 22 1007.6
20260505200106 82 220 9.0 26.0 0.00 0.00 0.00 22 1007.7
20260505200006 82 269 9.0 26.0 0.00 0.00 0.00 23 1007.7
20260505195904 82 244 9.0 26.0 0.00 0.00 0.00 24 1007.7
20260505195803 81 267 8.0 26.0 0.00 0.00 0.00 23 1007.6
20260505195701 81 273 8.0 26.0 0.00 0.00 0.00 24 1007.9
20260505195601 81 219 8.0 26.0 0.00 0.00 0.00 23 1007.8
20260505195456 81 205 8.0 20.0 0.00 0.00 0.00 23 1007.8
20260505195400 80 296 8.0 20.0 0.00 0.00 0.00 23 1007.7
20260505195251 80 229 7.0 16.0 0.00 0.00 0.00 23 1007.7
20260505195158 80 166 7.0 15.0 0.00 0.00 0.00 23 1007.7
20260505195040 80 267 8.0 18.0 0.00 0.00 0.00 23 1007.7
20260505194946 80 261 8.0 21.0 0.00 0.00 0.00 24 1007.7
20260505194743 80 248 8.0 21.0 0.00 0.00 0.00 23 1007.7
20260505194640 80 289 8.0 21.0 0.00 0.00 0.00 23 1007.7
20260505194537 80 229 9.0 21.0 0.00 0.00 0.00 23 1007.7
20260505194442 80 188 9.0 21.0 0.00 0.00 0.00 23 1007.7
20260505194337 80 273 10.0 21.0 0.00 0.00 0.00 23 1007.7
20260505194234 80 213 10.0 21.0 0.00 0.00 0.00 23 1007.6
20260505194129 80 201 10.0 21.0 0.00 0.00 0.00 23 1007.6
20260505194027 80 254 10.0 21.0 0.00 0.00 0.00 23 1007.6
20260505193925 80 244 10.0 21.0 0.00 0.00 0.00 23 1007.5
20260505193823 80 219 10.0 21.0 0.00 0.00 0.00 22 1007.5
20260505193723 80 305 10.0 21.0 0.00 0.00 0.00 23 1007.5
20260505193657 80 244 10.0 23.0 0.00 0.00 0.00 23 1007.5
20260505193621 80 244 10.0 23.0 0.00 0.00 0.00 23 1007.5
20260505193525 80 259 10.0 23.0 0.00 0.00 0.00 23 1007.5
20260505193419 80 238 10.0 23.0 0.00 0.00 0.00 23 1007.4
20260505193310 79 261 9.0 23.0 0.00 0.00 0.00 23 1007.4
20260505193209 79 257 9.0 23.0 0.00 0.00 0.00 23 1007.4
20260505193119 79 216 9.0 23.0 0.00 0.00 0.00 23 1007.4
20260505193013 79 324 10.0 23.0 0.00 0.00 0.00 23 1007.4
20260505192910 79 233 10.0 23.0 0.00 0.00 0.00 23 1007.4
20260505192810 79 274 10.0 23.0 0.00 0.00 0.00 22 1007.2
20260505192710 79 246 10.0 23.0 0.00 0.00 0.00 23 1007.7
20260505192611 79 223 10.0 23.0 0.00 0.00 0.00 23 1007.7
20260505192517 79 303 10.0 23.0 0.00 0.00 0.00 23 1007.7
20260505192410 79 263 11.0 23.0 0.00 0.00 0.00 23 1007.6
20260505192305 79 213 11.0 23.0 0.00 0.00 0.00 23 1007.6
20260505192201 78 211 11.0 23.0 0.00 0.00 0.00 22 1007.6
20260505192106 78 240 11.0 23.0 0.00 0.00 0.00 22 1007.6
20260505192007 78 202 11.0 23.0 0.00 0.00 0.00 22 1007.6
20260505191859 78 289 11.0 23.0 0.00 0.00 0.00 22 1007.6
20260505191755 78 225 11.0 23.0 0.00 0.00 0.00 22 1007.6
20260505191655 78 221 11.0 23.0 0.00 0.00 0.00 22 1007.5
20260505191557 78 241 10.0 22.0 0.00 0.00 0.00 22 1007.5
20260505191455 78 270 10.0 22.0 0.00 0.00 0.00 22 1007.5
20260505191345 78 221 10.0 22.0 0.00 0.00 0.00 22 1007.5
20260505191248 78 228 10.0 22.0 0.00 0.00 0.00 22 1007.4
20260505191142 78 232 10.0 22.0 0.00 0.00 0.00 22 1007.4
20260505191035 78 196 9.0 22.0 0.00 0.00 0.00 22 1007.4
20260505190942 78 286 9.0 22.0 0.00 0.00 0.00 22 1007.2
20260505190837 78 246 9.0 19.0 0.00 0.00 0.00 22 1007.2
20260505190739 78 271 9.0 19.0 0.00 0.00 0.00 22 1007.2
20260505190637 77 250 9.0 20.0 0.00 0.00 0.00 21 1007.2
20260505190540 77 227 9.0 20.0 0.00 0.00 0.00 21 1007.2
20260505190433 77 234 9.0 20.0 0.00 0.00 0.00 21 1007.2
20260505190339 77 233 9.0 20.0 0.00 0.00 0.00 21 1007.2
20260505190235 77 238 9.0 20.0 0.00 0.00 0.00 22 1007.2
20260505190129 77 286 9.0 20.0 0.00 0.00 0.00 22 1007.2
20260505190027 77 259 9.0 20.0 0.00 0.00 0.00 22 1007.1
20260505185929 77 219 9.0 20.0 0.00 0.00 0.00 22 1007.1
20260505185829 77 211 9.0 20.0 0.00 0.00 0.00 22 1007.1
20260505185726 77 198 8.0 20.0 0.00 0.00 0.00 22 1007.6
20260505185629 77 268 7.0 16.0 0.00 0.00 0.00 22 1007.6
20260505185526 77 240 7.0 15.0 0.00 0.00 0.00 22 1007.6
20260505185420 77 234 7.0 15.0 0.00 0.00 0.00 22 1007.6
20260505185318 77 223 7.0 18.0 0.00 0.00 0.00 22 1007.6
20260505185220 77 248 7.0 18.0 0.00 0.00 0.00 22 1007.6
20260505185118 76 286 7.0 18.0 0.00 0.00 0.00 22 1007.6
20260505185017 76 252 7.0 18.0 0.00 0.00 0.00 22 1007.6
20260505184909 76 254 7.0 18.0 0.00 0.00 0.00 22 1007.5
20260505184808 76 246 7.0 18.0 0.00 0.00 0.00 22 1007.5
20260505184710 76 254 8.0 18.0 0.00 0.00 0.00 22 1007.5
20260505184611 76 252 8.0 18.0 0.00 0.00 0.00 22 1007.5
20260505184506 76 229 8.0 18.0 0.00 0.00 0.00 21 1007.4
20260505184405 76 216 7.0 18.0 0.00 0.00 0.00 21 1007.4
20260505184306 76 324 7.0 18.0 0.00 0.00 0.00 21 1007.4
20260505184159 76 256 7.0 18.0 0.00 0.00 0.00 22 1007.6
20260505184055 76 247 6.0 18.0 0.00 0.00 0.00 22 1007.6
20260505183956 76 219 6.0 18.0 0.00 0.00 0.00 22 1007.6
20260505183849 76 271 6.0 18.0 0.00 0.00 0.00 21 1007.6
20260505183742 76 300 6.0 18.0 0.00 0.00 0.00 22 1007.6
20260505183641 76 247 6.0 13.0 0.00 0.00 0.00 22 1007.6
20260505183542 76 261 6.0 14.0 0.00 0.00 0.00 22 1007.6
20260505183440 76 262 7.0 14.0 0.00 0.00 0.00 22 1007.6
20260505183337 76 195 7.0 14.0 0.00 0.00 0.00 22 1007.6
20260505183235 76 237 7.0 14.0 0.00 0.00 0.00 22 1007.6
20260505183135 76 205 8.0 14.0 0.00 0.00 0.00 21 1007.6
20260505183034 76 229 8.0 14.0 0.00 0.00 0.00 21 1007.6
20260505182939 76 227 8.0 16.0 0.00 0.00 0.00 21 1007.6
20260505182831 76 226 8.0 16.0 0.00 0.00 0.00 21 1007.6
20260505182735 76 183 8.0 16.0 0.00 0.00 0.00 21 1007.6
20260505182630 76 274 9.0 18.0 0.00 0.00 0.00 21 1007.6
20260505182529 76 248 8.0 18.0 0.00 0.00 0.00 21 1007.6
20260505182426 76 246 8.0 18.0 0.00 0.00 0.00 21 1007.6
20260505182327 76 243 8.0 18.0 0.00 0.00 0.00 21 1007.6
20260505182226 76 233 8.0 18.0 0.00 0.00 0.00 21 1007.6
20260505182126 76 217 8.0 19.0 0.00 0.00 0.00 21 1007.6
20260505182018 76 220 8.0 19.0 0.00 0.00 0.00 21 1007.6
20260505181920 76 215 8.0 19.0 0.00 0.00 0.00 21 1007.6
20260505181820 76 252 9.0 19.0 0.00 0.00 0.00 20 1007.6
20260505181722 76 224 8.0 19.0 0.00 0.00 0.00 21 1007.6
20260505181614 76 171 8.0 19.0 0.00 0.00 0.00 21 1007.6
20260505181507 76 284 8.0 19.0 0.00 0.00 0.00 21 1007.6
20260505181403 76 267 9.0 19.0 0.00 0.00 0.00 21 1007.6
20260505181301 76 255 9.0 19.0 0.00 0.00 0.00 21 1007.6
20260505181204 76 227 8.0 19.0 0.00 0.00 0.00 22 1007.1
20260505181109 76 259 8.0 16.0 0.00 0.00 0.00 22 1007.1
20260505181005 76 277 9.0 16.0 0.00 0.00 0.00 22 1007.1
20260505180909 76 280 9.0 19.0 0.00 0.00 0.00 22 1007.2
20260505180802 76 232 9.0 20.0 0.00 0.00 0.00 23 1007.2
20260505180658 76 246 9.0 20.0 0.00 0.00 0.00 24 1007.2
20260505180604 76 228 9.0 20.0 0.00 0.00 0.00 24 1007.2
20260505180502 76 226 9.0 20.0 0.00 0.00 0.00 25 1007.2
20260505180356 76 259 9.0 20.0 0.00 0.00 0.00 25 1007.2
20260505180304 76 254 9.0 20.0 0.00 0.00 0.00 24 1007.2
20260505180202 76 242 9.0 20.0 0.00 0.00 0.00 24 1007.2
20260505180059 76 231 9.0 20.0 0.00 0.00 0.00 25 1007.2
20260505175955 76 231 9.0 20.0 0.00 0.00 0.00 25 1007.2
20260505175856 76 199 9.0 20.0 0.00 0.00 0.00 25 1007.2
20260505175748 76 258 9.0 18.0 0.00 0.00 0.00 25 1007.4
20260505175646 76 254 9.0 18.0 0.00 0.00 0.00 25 1007.4
20260505175549 76 302 9.0 18.0 0.00 0.00 0.00 24 1007.4
20260505175447 76 227 9.0 18.0 0.00 0.00 0.00 24 1007.4
20260505175347 76 173 9.0 18.0 0.00 0.00 0.00 25 1007.4
20260505175237 76 235 9.0 21.0 0.00 0.00 0.00 25 1007.4
20260505175137 76 277 9.0 21.0 0.00 0.00 0.00 25 1007.4
20260505175041 76 207 9.0 21.0 0.00 0.00 0.00 26 1007.4
20260505174936 76 232 8.0 21.0 0.00 0.00 0.00 26 1007.4
20260505174842 77 213 8.0 21.0 0.00 0.00 0.00 26 1007.4
20260505174739 77 279 8.0 21.0 0.00 0.00 0.00 26 1007.4
20260505174633 77 246 8.0 21.0 0.00 0.00 0.00 26 1007.4
20260505174533 77 260 7.0 21.0 0.00 0.00 0.00 26 1007.4
20260505174428 77 246 7.0 21.0 0.00 0.00 0.00 26 1007.4
20260505174329 77 259 7.0 21.0 0.00 0.00 0.00 26 1007.5
20260505174211 77 253 7.0 14.0 0.00 0.00 0.00 27 1007.4
20260505174111 77 221 7.0 14.0 0.00 0.00 0.00 27 1007.4
20260505174015 77 232 7.0 14.0 0.00 0.00 0.00 27 1007.4
20260505173911 77 251 7.0 14.0 0.00 0.00 0.00 27 1007.4
20260505173816 77 255 7.0 14.0 0.00 0.00 0.00 27 1007.4
20260505173712 77 252 7.0 14.0 0.00 0.00 0.00 27 1007.4
20260505173606 77 216 7.0 14.0 0.00 0.00 0.00 26 1007.4
20260505173508 77 227 7.0 14.0 0.00 0.00 0.00 27 1007.4
20260505173408 77 257 7.0 12.0 0.00 0.00 0.00 27 1007.4
20260505173300 77 262 7.0 12.0 0.00 0.00 0.00 27 1007.4
20260505173149 77 252 7.0 15.0 0.00 0.00 0.00 27 1007.4
20260505173052 77 251 7.0 15.0 0.00 0.00 0.00 27 1007.4
20260505172954 77 232 7.0 15.0 0.00 0.00 0.00 27 1007.4
20260505172847 77 235 6.0 15.0 0.00 0.00 0.00 27 1007.4
20260505172738 77 220 6.0 15.0 0.00 0.00 0.00 27 1007.4
20260505172636 77 221 6.0 15.0 0.00 0.00 0.00 28 1007.4
20260505172537 77 248 6.0 15.0 0.00 0.00 0.00 28 1007.4
20260505172436 77 277 6.0 15.0 0.00 0.00 0.00 28 1007.4
20260505172342 77 246 6.0 16.0 0.00 0.00 0.00 28 1007.5
20260505172238 77 267 7.0 16.0 0.00 0.00 0.00 28 1007.5
20260505172124 77 232 7.0 16.0 0.00 0.00 0.00 29 1007.5
20260505172032 77 209 7.0 16.0 0.00 0.00 0.00 29 1007.5
20260505171924 77 254 6.0 16.0 0.00 0.00 0.00 29 1007.5
20260505171825 77 211 6.0 16.0 0.00 0.00 0.00 29 1007.5
20260505171728 77 237 5.0 16.0 0.00 0.00 0.00 29 1007.4
20260505171620 77 225 5.0 16.0 0.00 0.00 0.00 29 1007.4
20260505171518 77 253 5.0 16.0 0.00 0.00 0.00 29 1007.4
20260505171418 77 229 3.0 16.0 0.00 0.00 0.00 29 1007.5
20260505171315 77 231 3.0 15.0 0.00 0.00 0.00 29 1007.5
20260505171214 77 218 2.0 14.0 0.00 0.00 0.00 30 1007.4
20260505171113 77 234 2.0 14.0 0.00 0.00 0.00 31 1007.4
20260505171017 77 265 1.0 9.0 0.00 0.00 0.00 31 1007.4
20260505170908 76 133 2.0 6.0 0.00 0.00 0.00 32 1007.4
20260505170811 76 134 2.0 9.0 0.00 0.00 0.00 33 1007.2
20260505170711 76 209 2.0 9.0 0.00 0.00 0.00 33 1007.2
20260505170609 76 207 2.0 9.0 0.00 0.00 0.00 33 1007.1
20260505170511 76 175 3.0 9.0 0.00 0.00 0.00 34 1007.1
20260505170407 76 88 3.0 9.0 0.00 0.00 0.00 34 1007.1
20260505170342 76 71 3.0 9.0 0.00 0.00 0.00 33 1007.1
20260505170204 76 125 3.0 9.0 0.00 0.00 0.00 33 1007.1
20260505170104 76 126 3.0 9.0 0.00 0.00 0.00 33 1007.1
20260505170007 75 94 3.0 9.0 0.00 0.00 0.00 33 1007.1
20260505165906 75 128 3.0 9.0 0.00 0.00 0.00 33 1007.1
20260505165802 75 110 3.0 9.0 0.00 0.00 0.00 34 1007.1
20260505165707 75 86 4.0 9.0 0.00 0.00 0.00 34 1007.4
20260505165553 75 97 4.0 9.0 0.00 0.00 0.00 34 1007.4
20260505165455 75 101 3.0 9.0 0.00 0.00 0.00 34 1007.4
20260505165345 75 119 3.0 9.0 0.00 0.00 0.00 34 1007.4
20260505165248 75 140 3.0 9.0 0.00 0.00 0.00 34 1007.2
20260505165149 75 86 3.0 8.0 0.00 0.00 0.00 36 1007.2
20260505165037 75 119 3.0 8.0 0.00 0.00 0.00 36 1007.2
20260505164941 75 123 3.0 8.0 0.00 0.00 0.00 36 1007.2
20260505164824 75 112 3.0 8.0 0.00 0.00 0.00 36 1007.2
20260505164728 74 106 3.0 8.0 0.00 0.00 0.00 35 1007.2
20260505164632 74 117 3.0 8.0 0.00 0.00 0.00 36 1007.2
20260505164512 74 115 3.0 8.0 0.00 0.00 0.00 36 1007.2
20260505164414 74 124 3.0 8.0 0.00 0.00 0.00 36 1007.1
20260505164312 74 248 3.0 8.0 0.00 0.00 0.00 36 1007.1
20260505164210 74 155 3.0 7.0 0.00 0.00 0.00 35 1007.2
20260505164117 74 185 3.0 7.0 0.00 0.00 0.00 36 1007.2
20260505164013 74 134 3.0 7.0 0.00 0.00 0.00 36 1007.1
20260505163913 74 116 3.0 7.0 0.00 0.00 0.00 36 1007.1
20260505163808 74 161 3.0 7.0 0.00 0.00 0.00 36 1007.1
20260505163710 74 164 3.0 7.0 0.00 0.00 0.00 36 1007.1
20260505163611 74 146 3.0 7.0 0.00 0.00 0.00 37 1007.1
20260505163510 74 128 3.0 7.0 0.00 0.00 0.00 38 1007.1
20260505163419 73 146 2.0 7.0 0.00 0.00 0.00 38 1007.0
20260505163311 73 121 2.0 7.0 0.00 0.00 0.00 38 1007.0
20260505163209 73 136 2.0 7.0 0.00 0.00 0.00 37 1007.0
20260505163107 73 80 2.0 7.0 0.00 0.00 0.00 37 1007.0
20260505163017 73 167 1.0 7.0 0.00 0.00 0.00 38 1007.0
20260505162910 73 82 1.0 7.0 0.00 0.00 0.00 38 1007.0
20260505162809 73 128 1.0 7.0 0.00 0.00 0.00 38 1007.0
20260505162713 73 61 1.0 6.0 0.00 0.00 0.00 39 1007.5
20260505162616 73 63 0.0 6.0 0.00 0.00 0.00 40 1007.4
20260505162511 73 102 1.0 5.0 0.00 0.00 0.00 41 1007.4
20260505162403 73 119 1.0 5.0 0.00 0.00 0.00 41 1007.4
20260505162307 73 67 1.0 5.0 0.00 0.00 0.00 43 1007.4
20260505162157 73 155 1.0 5.0 0.00 0.00 0.00 43 1007.4
20260505162058 73 57 1.0 5.0 0.00 0.00 0.00 43 1007.4
20260505161958 73 91 2.0 6.0 0.00 0.00 0.00 44 1007.4
20260505161857 73 134 2.0 6.0 0.00 0.00 0.00 44 1007.4
20260505161756 72 136 2.0 7.0 0.00 0.00 0.00 44 1007.2
20260505161647 72 96 2.0 7.0 0.00 0.00 0.00 44 1007.2
20260505161545 72 186 2.0 7.0 0.00 0.00 0.00 43 1007.1
20260505161443 72 152 2.0 7.0 0.00 0.00 0.00 43 1007.1
20260505161336 72 39 2.0 7.0 0.00 0.00 0.00 42 1007.1
20260505161241 72 154 2.0 7.0 0.00 0.00 0.00 42 1007.1
20260505161136 72 114 2.0 7.0 0.00 0.00 0.00 42 1006.7
20260505161035 72 130 2.0 7.0 0.00 0.00 0.00 42 1006.7
20260505160940 72 120 2.0 7.0 0.00 0.00 0.00 41 1006.6
20260505160839 72 60 2.0 7.0 0.00 0.00 0.00 41 1006.6
20260505160739 72 118 1.0 5.0 0.00 0.00 0.00 42 1006.6
20260505160638 72 205 1.0 5.0 0.00 0.00 0.00 42 1006.6
20260505160536 72 86 1.0 5.0 0.00 0.00 0.00 41 1006.6
20260505160340 72 143 1.0 5.0 0.00 0.00 0.00 40 1006.6
20260505160234 72 147 1.0 5.0 0.00 0.00 0.00 40 1006.6
20260505160130 72 140 1.0 5.0 0.00 0.00 0.00 39 1006.6
20260505153341 71 98 0.0 3.0 0.00 0.00 0.00 42 1006.2
20260505153236 71 88 0.0 3.0 0.00 0.00 0.00 43 1006.4
20260505153134 71 87 0.0 1.0 0.00 0.00 0.00 42 1006.4
20260505153034 72 90 0.0 1.0 0.00 0.00 0.00 39 1006.4
20260505152930 72 64 0.0 1.0 0.00 0.00 0.00 38 1006.4
20260505152812 72 112 0.0 0.0 0.00 0.00 0.00 38 1006.4
20260505152713 72 106 0.0 0.0 0.00 0.00 0.00 38 1006.5
20260505152614 72 153 0.0 0.0 0.00 0.00 0.00 38 1006.5
20260505152516 72 154 0.0 0.0 0.00 0.00 0.00 37 1006.5
20260505152407 71 163 0.0 0.0 0.00 0.00 0.00 38 1006.5
20260505152310 71 163 0.0 0.0 0.00 0.00 0.00 37 1006.4
20260505152247 71 164 0.0 0.0 0.00 0.00 0.00 38 1006.4
20260505152057 71 161 0.0 0.0 0.00 0.00 0.00 38 1006.4
20260505151938 71 96 0.0 0.0 0.00 0.00 0.00 38 1006.2
20260505151841 71 96 0.0 0.0 0.00 0.00 0.00 37 1006.2
20260505151736 71 110 0.0 0.0 0.00 0.00 0.00 40 1006.4
20260505151633 71 107 0.0 0.0 0.00 0.00 0.00 39 1006.4
20260505151517 71 108 0.0 0.0 0.00 0.00 0.00 38 1006.2
20260505151414 71 108 0.0 0.0 0.00 0.00 0.00 37 1006.2
20260505151315 71 107 0.0 0.0 0.00 0.00 0.00 41 1006.4
20260505151211 71 148 0.0 0.0 0.00 0.00 0.00 41 1006.7
20260505151058 71 148 0.0 0.0 0.00 0.00 0.00 41 1006.6
20260505150942 71 149 0.0 0.0 0.00 0.00 0.00 41 1006.6
20260505150841 70 149 0.0 0.0 0.00 0.00 0.00 42 1006.6
20260505150736 70 149 0.0 0.0 0.00 0.00 0.00 44 1006.6
20260505150643 70 149 0.0 0.0 0.00 0.00 0.00 42 1006.6
20260505150543 70 148 0.0 0.0 0.00 0.00 0.00 42 1006.6
20260505150441 70 148 0.0 0.0 0.00 0.00 0.00 42 1006.6
20260505150340 70 149 0.0 0.0 0.00 0.00 0.00 43 1006.6
20260505150235 70 149 0.0 0.0 0.00 0.00 0.00 42 1006.5
20260505150112 70 149 0.0 0.0 0.00 0.00 0.00 43 1006.6
20260505140613 66 242 0.0 0.0 0.00 0.00 0.00 53 1005.8
20260505140503 66 194 0.0 0.0 0.00 0.00 0.00 52 1005.7
20260505140356 65 192 0.0 0.0 0.00 0.00 0.00 52 1005.7
20260505140246 65 192 0.0 0.0 0.00 0.00 0.00 52 1005.7
20260505140141 65 192 0.0 0.0 0.00 0.00 0.00 53 1005.7
20260505130242 61 244 0.0 1.0 0.00 0.00 0.00 61 1003.9
20260505130141 61 239 0.0 1.0 0.00 0.00 0.00 62 1003.9
20260505125002 61 290 0.0 1.0 0.00 0.00 0.00 62 1003.6
20260505124845 60 25 0.0 1.0 0.00 0.00 0.00 62 1003.5
20260505124744 60 40 0.0 1.0 0.00 0.00 0.00 61 1003.5
20260505124633 60 40 0.0 1.0 0.00 0.00 0.00 61 1003.5
20260505124536 60 40 0.0 1.0 0.00 0.00 0.00 61 1003.5
20260505124413 60 40 0.0 1.0 0.00 0.00 0.00 61 1003.5
20260505124310 60 40 0.0 1.0 0.00 0.00 0.00 61 1003.5
20260505124214 60 40 0.0 1.0 0.00 0.00 0.00 61 1003.5
20260505124102 60 40 0.0 1.0 0.00 0.00 0.00 61 1003.5
20260505123946 60 31 0.0 0.0 0.00 0.00 0.00 61 1003.5
20260505123845 60 11 0.0 4.0 0.00 0.00 0.00 61 1003.5
20260505123741 60 10 0.0 4.0 0.00 0.00 0.00 61 1003.5
20260505123641 60 10 0.0 4.0 0.00 0.00 0.00 60 1003.5
20260505123539 60 10 0.0 4.0 0.00 0.00 0.00 60 1003.5
20260505123438 60 91 0.0 4.0 0.00 0.00 0.00 61 1003.5
20260505123339 60 91 0.0 4.0 0.00 0.00 0.00 62 1003.5
20260505123233 60 79 0.0 4.0 0.00 0.00 0.00 62 1003.5
20260505123127 60 133 0.0 4.0 0.00 0.00 0.00 63 1003.5
20260505123031 60 207 0.0 4.0 0.00 0.00 0.00 63 1003.5
20260505122928 60 232 0.0 4.0 0.00 0.00 0.00 63 1003.5
20260505122813 60 239 0.0 2.0 0.00 0.00 0.00 63 1003.5
20260505122709 60 265 0.0 2.0 0.00 0.00 0.00 62 1003.4
20260505122610 60 274 0.0 0.0 0.00 0.00 0.00 62 1003.4
20260505122513 60 103 0.0 0.0 0.00 0.00 0.00 62 1003.4
20260505122402 60 103 0.0 0.0 0.00 0.00 0.00 62 1003.4
20260505122241 60 107 0.0 0.0 0.00 0.00 0.00 62 1003.4
20260505122139 60 92 0.0 0.0 0.00 0.00 0.00 62 1003.3
20260505122038 60 71 0.0 0.0 0.00 0.00 0.00 61 1003.4
20260505121941 60 71 0.0 0.0 0.00 0.00 0.00 62 1003.4
20260505121845 60 71 0.0 0.0 0.00 0.00 0.00 62 1003.4
20260505121736 60 71 0.0 0.0 0.00 0.00 0.00 62 1003.4
20260505121636 60 71 0.0 0.0 0.00 0.00 0.00 62 1003.4
20260505121531 60 56 0.0 0.0 0.00 0.00 0.00 62 1003.4
20260505121429 60 58 0.0 0.0 0.00 0.00 0.00 60 1003.4
20260505121331 60 241 0.0 0.0 0.00 0.00 0.00 60 1003.4
20260505121209 60 240 0.0 0.0 0.00 0.00 0.00 60 1002.7
20260505121110 60 240 0.0 0.0 0.00 0.00 0.00 60 1002.7
20260505121018 60 240 0.0 0.0 0.00 0.00 0.00 60 1002.7
20260505120914 60 240 0.0 0.0 0.00 0.00 0.00 60 1002.7
20260505120802 60 241 0.0 0.0 0.00 0.00 0.00 60 1002.7
20260505120638 60 240 0.0 0.0 0.00 0.00 0.00 60 1002.7
20260505120535 60 240 0.0 0.0 0.00 0.00 0.00 60 1002.7
20260505120441 60 241 0.0 0.0 0.00 0.00 0.00 59 1002.7
20260505120352 60 240 0.0 0.0 0.00 0.00 0.00 59 1002.7
20260505120307 60 240 0.0 0.0 0.00 0.00 0.00 59 1002.7
20260505120139 60 242 0.0 0.0 0.00 0.00 0.00 59 1002.7
20260505120034 61 242 0.0 0.0 0.00 0.00 0.00 59 1002.8
20260505115933 61 242 0.0 0.0 0.00 0.00 0.00 58 1002.8
20260505115838 61 119 0.0 0.0 0.00 0.00 0.00 58 1002.8
20260505115729 61 119 0.0 0.0 0.00 0.00 0.00 59 1002.7
20260505115616 61 119 0.0 0.0 0.00 0.00 0.00 58 1002.7
20260505115512 61 119 0.0 0.0 0.00 0.00 0.00 58 1002.7
20260505115347 61 119 0.0 0.0 0.00 0.00 0.00 58 1002.7
20260505115255 61 119 0.0 0.0 0.00 0.00 0.00 58 1002.7
20260505115143 61 119 0.0 0.0 0.00 0.00 0.00 58 1002.7
20260505115043 61 119 0.0 0.0 0.00 0.00 0.00 58 1002.7
20260505114939 61 119 0.0 0.0 0.00 0.00 0.00 57 1002.7
20260505114842 61 119 0.0 0.0 0.00 0.00 0.00 57 1002.7
20260505114741 61 119 0.0 0.0 0.00 0.00 0.00 57 1002.7
20260505114619 61 119 0.0 0.0 0.00 0.00 0.00 57 1002.7
20260505114513 61 119 0.0 0.0 0.00 0.00 0.00 57 1002.7
20260505114416 61 119 0.0 0.0 0.00 0.00 0.00 57 1002.7
20260505114310 61 119 0.0 0.0 0.00 0.00 0.00 56 1002.7
20260505114214 61 119 0.0 0.0 0.00 0.00 0.00 56 1002.6
20260505114111 61 119 0.0 0.0 0.00 0.00 0.00 56 1002.6
20260505113942 61 119 0.0 1.0 0.00 0.00 0.00 56 1002.6
20260505113841 61 119 0.0 1.0 0.00 0.00 0.00 56 1002.6
20260505113739 61 119 0.0 1.0 0.00 0.00 0.00 56 1002.6
20260505113634 61 119 0.0 1.0 0.00 0.00 0.00 55 1002.6
20260505113511 61 119 0.0 1.0 0.00 0.00 0.00 55 1002.6
20260505113359 61 132 0.0 1.0 0.00 0.00 0.00 55 1002.6
20260505113301 61 134 0.0 1.0 0.00 0.00 0.00 55 1002.6
20260505113146 61 101 0.0 1.0 0.00 0.00 0.00 55 1002.6
20260505113039 61 95 0.0 1.0 0.00 0.00 0.00 55 1002.6
20260505112937 61 103 0.0 1.0 0.00 0.00 0.00 55 1002.6
20260505112842 61 47 0.0 1.0 0.00 0.00 0.00 55 1002.6
20260505112721 62 71 0.0 2.0 0.00 0.00 0.00 55 1002.6
20260505112624 62 86 0.0 2.0 0.00 0.00 0.00 55 1002.6
20260505112512 62 90 0.0 2.0 0.00 0.00 0.00 54 1002.6
20260505112410 62 90 0.0 2.0 0.00 0.00 0.00 54 1002.6
20260505112304 62 54 0.0 2.0 0.00 0.00 0.00 54 1002.6
20260505112208 62 63 0.0 2.0 0.00 0.00 0.00 54 1002.6
20260505112042 62 65 0.0 2.0 0.00 0.00 0.00 54 1002.6
20260505111934 62 28 0.0 2.0 0.00 0.00 0.00 54 1002.6
20260505111837 62 43 0.0 2.0 0.00 0.00 0.00 54 1002.6
20260505111800 62 46 0.0 0.0 0.00 0.00 0.00 54 1002.6
20260505111650 62 34 0.0 0.0 0.00 0.00 0.00 53 1002.6
20260505111552 62 344 0.0 0.0 0.00 0.00 0.00 53 1002.6
20260505111447 62 342 0.0 0.0 0.00 0.00 0.00 53 1002.6
20260505111343 62 343 0.0 0.0 0.00 0.00 0.00 53 1002.6
20260505111251 62 343 0.0 0.0 0.00 0.00 0.00 54 1002.6
20260505111204 62 343 0.0 0.0 0.00 0.00 0.00 54 1002.6
20260505111041 62 304 0.0 0.0 0.00 0.00 0.00 52 1002.5
20260505110930 62 304 0.0 0.0 0.00 0.00 0.00 52 1002.5
20260505110822 62 304 0.0 0.0 0.00 0.00 0.00 52 1002.5
20260505110712 62 304 0.0 0.0 0.00 0.00 0.00 52 1002.6
20260505110653 62 304 0.0 0.0 0.00 0.00 0.00 51 1002.6
20260505110632 62 304 0.0 0.0 0.00 0.00 0.00 51 1002.5
20260505110608 62 304 0.0 0.0 0.00 0.00 0.00 51 1002.6
20260505110229 62 304 0.0 0.0 0.00 0.00 0.00 51 1002.6
20260505110135 62 304 0.0 0.0 0.00 0.00 0.00 51 1002.6
20260505102115 64 71 0.0 0.0 0.00 0.00 0.00 44 1002.8
20260505102017 64 229 0.0 1.0 0.00 0.00 0.00 44 1002.8
20260505101915 64 230 0.0 1.0 0.00 0.00 0.00 43 1002.8
20260505101815 64 230 0.0 1.0 0.00 0.00 0.00 43 1002.8
20260505101715 64 230 0.0 1.0 0.00 0.00 0.00 43 1002.8
20260505101610 64 230 0.0 1.0 0.00 0.00 0.00 42 1002.8
20260505101515 64 230 0.0 1.0 0.00 0.00 0.00 42 1002.9
20260505101416 64 230 0.0 1.0 0.00 0.00 0.00 43 1002.9
20260505101314 64 210 0.0 1.0 0.00 0.00 0.00 42 1002.9
20260505101159 64 211 0.0 1.0 0.00 0.00 0.00 42 1002.2
20260505101039 64 252 0.0 1.0 0.00 0.00 0.00 42 1002.2
20260505100938 64 244 0.0 1.0 0.00 0.00 0.00 42 1002.2
20260505100842 64 229 0.0 1.0 0.00 0.00 0.00 42 1002.2
20260505100736 64 204 0.0 1.0 0.00 0.00 0.00 42 1002.2
20260505100642 65 218 0.0 1.0 0.00 0.00 0.00 42 1002.3
20260505100539 65 191 0.0 1.0 0.00 0.00 0.00 42 1002.3
20260505100445 65 222 0.0 1.0 0.00 0.00 0.00 41 1002.3
20260505100341 64 223 0.0 1.0 0.00 0.00 0.00 41 1002.2
20260505100242 64 226 0.0 1.0 0.00 0.00 0.00 41 1002.2
20260505100137 64 264 0.0 1.0 0.00 0.00 0.00 43 1002.2
20260505100013 64 225 0.0 1.0 0.00 0.00 0.00 43 1002.2
20260505095920 64 200 0.0 1.0 0.00 0.00 0.00 43 1002.2
20260505095822 65 221 0.0 1.0 0.00 0.00 0.00 42 1002.3
20260505095721 65 221 0.0 1.0 0.00 0.00 0.00 42 1002.4
20260505095611 65 221 0.0 1.0 0.00 0.00 0.00 41 1002.4
20260505095510 65 223 0.0 1.0 0.00 0.00 0.00 41 1002.4
20260505095407 65 113 0.0 1.0 0.00 0.00 0.00 41 1002.5
20260505095305 65 105 0.0 1.0 0.00 0.00 0.00 42 1002.5
20260505095200 65 105 0.0 1.0 0.00 0.00 0.00 41 1002.5
20260505095053 65 100 0.0 1.0 0.00 0.00 0.00 41 1002.5
20260505094951 65 88 0.0 0.0 0.00 0.00 0.00 41 1002.5
20260505094848 65 98 0.0 0.0 0.00 0.00 0.00 40 1002.5
20260505094752 65 96 0.0 0.0 0.00 0.00 0.00 40 1002.5
20260505094641 65 97 0.0 0.0 0.00 0.00 0.00 40 1002.5
20260505094541 65 98 0.0 0.0 0.00 0.00 0.00 40 1002.5
20260505094442 65 240 0.0 0.0 0.00 0.00 0.00 40 1002.6
20260505094340 65 242 0.0 0.0 0.00 0.00 0.00 40 1002.6
20260505094238 65 242 0.0 1.0 0.00 0.00 0.00 40 1002.6
20260505094137 65 242 0.0 2.0 0.00 0.00 0.00 39 1002.3
20260505094042 66 242 0.0 2.0 0.00 0.00 0.00 39 1002.3
20260505093912 66 242 0.0 5.0 0.00 0.00 0.00 39 1002.3
20260505093814 66 242 0.0 5.0 0.00 0.00 0.00 39 1002.3
20260505093710 66 242 1.0 5.0 0.00 0.00 0.00 39 1002.3
20260505093620 66 242 1.0 5.0 0.00 0.00 0.00 38 1002.4
20260505093514 66 242 1.0 5.0 0.00 0.00 0.00 38 1002.4
20260505093409 66 221 1.0 5.0 0.00 0.00 0.00 38 1002.4
20260505093316 66 246 1.0 5.0 0.00 0.00 0.00 38 1002.4
20260505093214 66 265 1.0 5.0 0.00 0.00 0.00 38 1002.4
20260505093040 66 229 1.0 5.0 0.00 0.00 0.00 38 1002.5
20260505092936 67 216 1.0 7.0 0.00 0.00 0.00 37 1002.5
20260505092838 67 230 1.0 7.0 0.00 0.00 0.00 37 1002.5
20260505092737 67 224 1.0 7.0 0.00 0.00 0.00 37 1002.5
20260505092638 67 207 1.0 7.0 0.00 0.00 0.00 36 1002.6
20260505092534 67 242 2.0 7.0 0.00 0.00 0.00 36 1002.6
20260505092449 67 229 2.0 7.0 0.00 0.00 0.00 36 1002.6
20260505092334 67 208 2.0 8.0 0.00 0.00 0.00 36 1002.6
20260505092232 67 235 2.0 8.0 0.00 0.00 0.00 36 1002.6
20260505092135 67 236 3.0 8.0 0.00 0.00 0.00 35 1002.7
20260505092040 67 213 2.0 8.0 0.00 0.00 0.00 35 1002.7
20260505091924 67 242 2.0 8.0 0.00 0.00 0.00 35 1002.7
20260505091818 67 188 2.0 8.0 0.00 0.00 0.00 35 1002.7
20260505091720 67 250 2.0 8.0 0.00 0.00 0.00 34 1002.7
20260505091616 67 238 2.0 8.0 0.00 0.00 0.00 34 1002.7
20260505091513 67 233 2.0 8.0 0.00 0.00 0.00 34 1002.7
20260505091413 67 255 2.0 8.0 0.00 0.00 0.00 34 1002.7
20260505091313 67 223 2.0 10.0 0.00 0.00 0.00 34 1002.7
20260505091210 67 261 2.0 10.0 0.00 0.00 0.00 34 1002.7
20260505091110 67 268 2.0 10.0 0.00 0.00 0.00 34 1002.7
20260505091011 67 243 2.0 10.0 0.00 0.00 0.00 34 1002.7
20260505090950 67 223 2.0 10.0 0.00 0.00 0.00 34 1002.7
20260505090916 67 223 2.0 10.0 0.00 0.00 0.00 34 1002.7
20260505090806 67 271 2.0 10.0 0.00 0.00 0.00 34 1002.7
20260505090705 67 231 2.0 10.0 0.00 0.00 0.00 34 1002.7
20260505090602 67 267 2.0 10.0 0.00 0.00 0.00 34 1002.7
20260505090453 67 252 3.0 10.0 0.00 0.00 0.00 34 1002.7
20260505090359 67 238 3.0 12.0 0.00 0.00 0.00 34 1002.7
20260505090251 67 156 3.0 12.0 0.00 0.00 0.00 34 1002.7
20260505090142 67 223 3.0 12.0 0.00 0.00 0.00 34 1002.7
20260505090042 67 215 3.0 12.0 0.00 0.00 0.00 34 1002.7
20260505085947 67 229 3.0 12.0 0.00 0.00 0.00 34 1002.7
20260505085842 67 259 3.0 12.0 0.00 0.00 0.00 34 1002.7
20260505085741 68 225 4.0 12.0 0.00 0.00 0.00 34 1002.8
20260505085636 68 250 4.0 12.0 0.00 0.00 0.00 34 1002.9
20260505085538 68 245 5.0 12.0 0.00 0.00 0.00 34 1002.9
20260505085435 68 240 5.0 12.0 0.00 0.00 0.00 34 1002.9
20260505085331 68 244 5.0 12.0 0.00 0.00 0.00 34 1002.9
20260505085232 68 246 5.0 12.0 0.00 0.00 0.00 34 1002.9
20260505085130 68 244 5.0 12.0 0.00 0.00 0.00 34 1002.9
20260505085026 68 271 5.0 12.0 0.00 0.00 0.00 34 1002.9
20260505084926 68 252 5.0 10.0 0.00 0.00 0.00 34 1002.9
20260505084816 68 247 4.0 10.0 0.00 0.00 0.00 33 1002.9
20260505084723 68 269 4.0 10.0 0.00 0.00 0.00 33 1002.9
20260505084613 68 275 4.0 10.0 0.00 0.00 0.00 33 1002.9
20260505084511 68 238 4.0 10.0 0.00 0.00 0.00 33 1002.9
20260505084410 68 247 3.0 9.0 0.00 0.00 0.00 34 1002.9
20260505084310 68 203 3.0 9.0 0.00 0.00 0.00 33 1002.9
20260505084211 68 237 3.0 9.0 0.00 0.00 0.00 33 1002.9
20260505084112 68 233 3.0 9.0 0.00 0.00 0.00 33 1002.9
20260505084013 68 202 3.0 9.0 0.00 0.00 0.00 33 1002.9
20260505083913 68 257 3.0 9.0 0.00 0.00 0.00 33 1002.9
20260505083811 68 242 3.0 9.0 0.00 0.00 0.00 34 1002.9
20260505083710 68 238 3.0 9.0 0.00 0.00 0.00 33 1002.9
20260505083609 68 275 3.0 9.0 0.00 0.00 0.00 34 1002.9
20260505083503 67 254 3.0 9.0 0.00 0.00 0.00 34 1002.8
20260505083401 67 251 3.0 9.0 0.00 0.00 0.00 34 1002.8
20260505083258 67 224 3.0 9.0 0.00 0.00 0.00 34 1002.8
20260505083146 67 259 3.0 9.0 0.00 0.00 0.00 34 1002.8
20260505083045 67 290 3.0 9.0 0.00 0.00 0.00 35 1002.8
20260505082945 67 223 3.0 9.0 0.00 0.00 0.00 35 1002.8
20260505082844 67 217 3.0 9.0 0.00 0.00 0.00 34 1002.8
20260505082738 67 239 3.0 9.0 0.00 0.00 0.00 34 1002.8
20260505082644 67 226 2.0 8.0 0.00 0.00 0.00 34 1003.0
20260505082537 67 249 2.0 8.0 0.00 0.00 0.00 35 1003.0
20260505082439 67 232 2.0 8.0 0.00 0.00 0.00 35 1002.9
20260505082335 67 231 2.0 8.0 0.00 0.00 0.00 35 1002.9
20260505082239 67 248 2.0 8.0 0.00 0.00 0.00 35 1002.9
20260505082135 67 234 2.0 8.0 0.00 0.00 0.00 35 1002.9
20260505082040 67 243 2.0 7.0 0.00 0.00 0.00 37 1002.9
20260505081932 67 225 2.0 7.0 0.00 0.00 0.00 37 1002.8
20260505081828 66 205 2.0 7.0 0.00 0.00 0.00 37 1002.8
20260505081725 66 198 2.0 7.0 0.00 0.00 0.00 37 1002.8
20260505081620 66 237 2.0 7.0 0.00 0.00 0.00 38 1002.7
20260505081519 66 239 2.0 7.0 0.00 0.00 0.00 38 1002.7
20260505081424 66 232 1.0 7.0 0.00 0.00 0.00 38 1002.6
20260505081314 65 207 1.0 7.0 0.00 0.00 0.00 39 1002.6
20260505081222 65 231 1.0 7.0 0.00 0.00 0.00 39 1002.9
20260505081114 65 281 1.0 7.0 0.00 0.00 0.00 40 1002.9
20260505081018 65 236 1.0 7.0 0.00 0.00 0.00 40 1002.8
20260505080908 65 250 1.0 7.0 0.00 0.00 0.00 41 1002.8
20260505080812 64 226 1.0 6.0 0.00 0.00 0.00 43 1002.7
20260505080715 64 250 0.0 6.0 0.00 0.00 0.00 43 1002.7
20260505080609 64 177 0.0 6.0 0.00 0.00 0.00 45 1002.7
20260505080506 64 228 0.0 6.0 0.00 0.00 0.00 45 1002.6
20260505080404 63 229 0.0 6.0 0.00 0.00 0.00 47 1002.5
20260505080259 63 254 0.0 1.0 0.00 0.00 0.00 50 1002.5
20260505080147 63 254 0.0 1.0 0.00 0.00 0.00 50 1002.5
20260505080038 63 213 0.0 1.0 0.00 0.00 0.00 50 1002.5
20260505075943 63 206 0.0 1.0 0.00 0.00 0.00 50 1002.5
20260505075838 63 225 0.0 1.0 0.00 0.00 0.00 52 1002.5
20260505075741 63 223 0.0 2.0 0.00 0.00 0.00 52 1002.4
20260505075637 63 210 0.0 2.0 0.00 0.00 0.00 52 1002.4
20260505075541 62 209 0.0 2.0 0.00 0.00 0.00 52 1002.4
20260505075440 62 214 1.0 4.0 0.00 0.00 0.00 52 1002.4
20260505075335 62 226 1.0 5.0 0.00 0.00 0.00 52 1002.4
20260505075239 62 226 1.0 5.0 0.00 0.00 0.00 53 1002.4
20260505075135 62 221 1.0 5.0 0.00 0.00 0.00 53 1002.4
20260505075026 62 208 1.0 5.0 0.00 0.00 0.00 53 1002.4
20260505074909 62 213 1.0 6.0 0.00 0.00 0.00 53 1002.4
20260505074809 62 215 1.0 6.0 0.00 0.00 0.00 53 1002.4
20260505074712 63 220 1.0 6.0 0.00 0.00 0.00 54 1002.4
20260505074613 63 209 1.0 6.0 0.00 0.00 0.00 53 1002.5
20260505074513 63 209 1.0 6.0 0.00 0.00 0.00 53 1002.5
20260505074418 63 180 1.0 6.0 0.00 0.00 0.00 53 1002.5
20260505074308 63 148 1.0 6.0 0.00 0.00 0.00 52 1002.6
20260505074206 64 173 1.0 7.0 0.00 0.00 0.00 52 1002.5
20260505074058 64 184 1.0 7.0 0.00 0.00 0.00 52 1002.6
20260505074008 64 146 1.0 7.0 0.00 0.00 0.00 51 1002.6
20260505073901 64 151 1.0 7.0 0.00 0.00 0.00 48 1002.6
20260505073801 64 150 1.0 7.0 0.00 0.00 0.00 47 1002.6
20260505073650 64 207 1.0 7.0 0.00 0.00 0.00 48 1002.6
20260505073548 64 207 1.0 7.0 0.00 0.00 0.00 48 1002.6
20260505073445 64 196 1.0 7.0 0.00 0.00 0.00 48 1002.6
20260505073342 64 189 1.0 7.0 0.00 0.00 0.00 48 1002.6
20260505073234 64 194 1.0 6.0 0.00 0.00 0.00 48 1002.6
20260505073131 64 223 1.0 5.0 0.00 0.00 0.00 49 1002.6
20260505073035 64 179 1.0 5.0 0.00 0.00 0.00 49 1002.6
20260505072924 64 169 1.0 5.0 0.00 0.00 0.00 49 1002.6
20260505072819 64 188 1.0 5.0 0.00 0.00 0.00 49 1002.6
20260505072713 64 199 1.0 5.0 0.00 0.00 0.00 50 1002.6
20260505072612 64 200 1.0 5.0 0.00 0.00 0.00 50 1002.6
20260505072518 64 227 1.0 5.0 0.00 0.00 0.00 50 1002.6
20260505072406 64 223 1.0 5.0 0.00 0.00 0.00 49 1002.7
20260505072301 64 202 1.0 5.0 0.00 0.00 0.00 49 1002.7
20260505072159 64 211 1.0 5.0 0.00 0.00 0.00 49 1002.7
20260505072058 65 223 1.0 5.0 0.00 0.00 0.00 49 1002.8
20260505071944 65 209 1.0 5.0 0.00 0.00 0.00 48 1002.8
20260505071846 65 215 1.0 5.0 0.00 0.00 0.00 48 1002.8
20260505071739 65 213 1.0 6.0 0.00 0.00 0.00 47 1002.8
20260505071645 65 246 1.0 6.0 0.00 0.00 0.00 47 1002.9
20260505071536 65 237 2.0 9.0 0.00 0.00 0.00 47 1002.9
20260505071437 65 223 2.0 9.0 0.00 0.00 0.00 46 1002.9
20260505071339 66 213 2.0 9.0 0.00 0.00 0.00 46 1003.0
20260505071238 66 216 3.0 9.0 0.00 0.00 0.00 44 1003.0
20260505071137 66 240 3.0 9.0 0.00 0.00 0.00 43 1003.3
20260505071037 66 221 3.0 9.0 0.00 0.00 0.00 43 1003.3
20260505070932 66 234 3.0 9.0 0.00 0.00 0.00 43 1003.3
20260505070830 66 240 3.0 9.0 0.00 0.00 0.00 43 1003.3
20260505070727 66 189 2.0 9.0 0.00 0.00 0.00 42 1003.3
20260505070630 66 227 2.0 8.0 0.00 0.00 0.00 42 1003.3
20260505070523 66 191 1.0 8.0 0.00 0.00 0.00 42 1003.1
20260505070417 65 219 1.0 8.0 0.00 0.00 0.00 43 1003.1
20260505070323 65 219 1.0 6.0 0.00 0.00 0.00 43 1003.0
20260505070219 65 233 1.0 6.0 0.00 0.00 0.00 46 1003.0
20260505070116 65 215 1.0 6.0 0.00 0.00 0.00 46 1003.0
20260505070012 65 198 1.0 6.0 0.00 0.00 0.00 47 1003.0
20260505065910 65 175 0.0 6.0 0.00 0.00 0.00 46 1003.0
20260505065811 65 152 0.0 6.0 0.00 0.00 0.00 45 1003.0
20260505065718 65 192 0.0 0.0 0.00 0.00 0.00 45 1002.8
20260505065605 65 184 0.0 0.0 0.00 0.00 0.00 45 1002.8
20260505065501 65 202 0.0 0.0 0.00 0.00 0.00 45 1002.8
20260505065400 65 190 0.0 0.0 0.00 0.00 0.00 45 1002.8
20260505065235 65 175 0.0 0.0 0.00 0.00 0.00 46 1002.8
20260505065136 65 170 0.0 0.0 0.00 0.00 0.00 45 1002.9
20260505065040 65 118 0.0 0.0 0.00 0.00 0.00 46 1002.9
20260505064939 65 118 0.0 0.0 0.00 0.00 0.00 45 1002.9
20260505064837 66 117 0.0 0.0 0.00 0.00 0.00 45 1003.0
20260505064737 66 117 0.0 0.0 0.00 0.00 0.00 45 1003.0
20260505064643 66 117 0.0 0.0 0.00 0.00 0.00 45 1003.0
20260505064540 66 117 0.0 0.0 0.00 0.00 0.00 44 1003.0
20260505064438 66 117 0.0 0.0 0.00 0.00 0.00 44 1003.0
20260505064327 66 117 0.0 0.0 0.00 0.00 0.00 43 1003.1
20260505064228 66 136 0.0 0.0 0.00 0.00 0.00 43 1003.0
20260505064124 66 150 0.0 0.0 0.00 0.00 0.00 42 1003.0
20260505064015 67 150 0.0 0.0 0.00 0.00 0.00 42 1003.0
20260505063913 67 150 0.0 0.0 0.00 0.00 0.00 41 1003.1
20260505063817 67 150 0.0 0.0 0.00 0.00 0.00 41 1003.1
20260505063657 67 150 0.0 1.0 0.00 0.00 0.00 41 1003.1
20260505063548 67 150 0.0 1.0 0.00 0.00 0.00 41 1003.1
20260505063439 67 190 0.0 1.0 0.00 0.00 0.00 40 1003.1
20260505063350 67 190 0.0 1.0 0.00 0.00 0.00 40 1003.1
20260505063241 67 179 0.0 1.0 0.00 0.00 0.00 41 1003.1
20260505063138 67 164 0.0 1.0 0.00 0.00 0.00 41 1003.1
20260505063028 67 162 0.0 1.0 0.00 0.00 0.00 41 1003.3
20260505062930 67 166 0.0 1.0 0.00 0.00 0.00 41 1003.3
20260505062831 67 171 0.0 1.0 0.00 0.00 0.00 40 1003.3
20260505062725 67 175 0.0 1.0 0.00 0.00 0.00 40 1003.1
20260505062629 67 150 0.0 0.0 0.00 0.00 0.00 40 1003.1
20260505062515 67 206 0.0 0.0 0.00 0.00 0.00 40 1003.1
20260505062410 67 223 0.0 0.0 0.00 0.00 0.00 40 1003.1
20260505062313 67 230 0.0 0.0 0.00 0.00 0.00 39 1003.1
20260505062140 68 200 0.0 0.0 0.00 0.00 0.00 39 1003.3
20260505062038 68 215 0.0 0.0 0.00 0.00 0.00 39 1003.3
20260505061945 68 215 0.0 1.0 0.00 0.00 0.00 39 1003.3
20260505061840 68 226 0.0 1.0 0.00 0.00 0.00 39 1003.3
20260505061737 68 226 0.0 1.0 0.00 0.00 0.00 39 1003.3
20260505061638 68 226 0.0 1.0 0.00 0.00 0.00 39 1003.3
20260505061537 68 228 0.0 1.0 0.00 0.00 0.00 38 1003.3
20260505061411 68 228 0.0 1.0 0.00 0.00 0.00 38 1003.3
20260505061310 68 234 0.0 1.0 0.00 0.00 0.00 38 1003.3
20260505061218 68 213 0.0 1.0 0.00 0.00 0.00 38 1003.6
20260505061110 68 221 0.0 1.0 0.00 0.00 0.00 38 1003.6
20260505061008 68 223 0.0 2.0 0.00 0.00 0.00 38 1003.6
20260505060905 68 208 0.0 2.0 0.00 0.00 0.00 38 1003.6
20260505060742 68 209 0.0 2.0 0.00 0.00 0.00 38 1003.6
20260505060637 68 209 0.0 2.0 0.00 0.00 0.00 38 1003.6
20260505060534 68 223 0.0 2.0 0.00 0.00 0.00 38 1003.6
20260505060437 68 199 0.0 2.0 0.00 0.00 0.00 38 1003.6
20260505060341 68 144 0.0 2.0 0.00 0.00 0.00 38 1003.6
20260505060231 68 245 0.0 2.0 0.00 0.00 0.00 38 1003.7
20260505060120 68 234 0.0 4.0 0.00 0.00 0.00 38 1003.6
20260505060018 68 262 0.0 4.0 0.00 0.00 0.00 38 1003.6
20260505055916 68 243 0.0 4.0 0.00 0.00 0.00 38 1003.7
20260505055810 68 276 0.0 4.0 0.00 0.00 0.00 38 1003.6
20260505055712 68 246 0.0 4.0 0.00 0.00 0.00 38 1003.8
20260505055611 68 248 1.0 5.0 0.00 0.00 0.00 38 1003.8
20260505055510 68 243 1.0 5.0 0.00 0.00 0.00 38 1003.8
20260505055410 68 243 1.0 5.0 0.00 0.00 0.00 38 1003.8
20260505055310 68 248 1.0 6.0 0.00 0.00 0.00 38 1003.8
20260505055209 68 278 1.0 6.0 0.00 0.00 0.00 38 1003.8
20260505055110 68 249 1.0 6.0 0.00 0.00 0.00 38 1003.8
20260505055009 68 259 1.0 6.0 0.00 0.00 0.00 38 1003.8
20260505054902 68 257 1.0 6.0 0.00 0.00 0.00 39 1003.8
20260505054802 68 252 1.0 6.0 0.00 0.00 0.00 39 1003.8
20260505054701 69 254 1.0 6.0 0.00 0.00 0.00 38 1003.9
20260505054557 69 232 1.0 6.0 0.00 0.00 0.00 39 1003.9
20260505054447 69 246 1.0 6.0 0.00 0.00 0.00 39 1003.9
20260505054343 69 263 1.0 5.0 0.00 0.00 0.00 38 1003.9
20260505054246 69 234 1.0 5.0 0.00 0.00 0.00 38 1003.9
20260505054145 69 236 1.0 6.0 0.00 0.00 0.00 38 1003.9
20260505054050 69 247 1.0 6.0 0.00 0.00 0.00 38 1004.0
20260505053943 69 238 1.0 6.0 0.00 0.00 0.00 38 1004.0
20260505053840 69 236 1.0 6.0 0.00 0.00 0.00 37 1004.0
20260505053737 69 221 1.0 6.0 0.00 0.00 0.00 37 1004.0
20260505053639 69 241 1.0 7.0 0.00 0.00 0.00 37 1004.1
20260505053540 70 242 1.0 7.0 0.00 0.00 0.00 36 1004.1
20260505053440 70 274 1.0 7.0 0.00 0.00 0.00 36 1004.1
20260505053343 70 259 1.0 7.0 0.00 0.00 0.00 35 1004.3
20260505053237 70 236 1.0 7.0 0.00 0.00 0.00 35 1004.3
20260505053140 70 232 1.0 7.0 0.00 0.00 0.00 35 1004.3
20260505053040 70 232 1.0 7.0 0.00 0.00 0.00 34 1004.3
20260505052937 70 205 2.0 7.0 0.00 0.00 0.00 34 1004.3
20260505052835 71 231 2.0 7.0 0.00 0.00 0.00 34 1004.4
20260505052728 71 232 2.0 7.0 0.00 0.00 0.00 33 1004.5
20260505052625 71 204 2.0 7.0 0.00 0.00 0.00 33 1004.5
20260505052517 71 228 2.0 7.0 0.00 0.00 0.00 33 1004.6
20260505052415 71 234 2.0 7.0 0.00 0.00 0.00 33 1004.6
20260505052311 71 232 2.0 7.0 0.00 0.00 0.00 32 1004.6
20260505052215 71 249 2.0 7.0 0.00 0.00 0.00 32 1004.6
20260505052112 71 227 2.0 7.0 0.00 0.00 0.00 32 1004.6
20260505052012 71 263 2.0 7.0 0.00 0.00 0.00 31 1004.6
20260505051921 71 237 2.0 8.0 0.00 0.00 0.00 32 1004.6
20260505051810 71 236 3.0 8.0 0.00 0.00 0.00 32 1004.6
20260505051708 71 215 3.0 8.0 0.00 0.00 0.00 32 1004.5
20260505051613 71 236 3.0 8.0 0.00 0.00 0.00 32 1004.5
20260505051518 71 279 3.0 8.0 0.00 0.00 0.00 32 1004.5
20260505051413 71 247 3.0 8.0 0.00 0.00 0.00 32 1004.5
20260505051303 71 239 3.0 8.0 0.00 0.00 0.00 32 1004.5
20260505051205 71 249 3.0 8.0 0.00 0.00 0.00 32 1005.0
20260505051054 71 232 3.0 8.0 0.00 0.00 0.00 32 1005.0
20260505050956 71 233 3.0 8.0 0.00 0.00 0.00 33 1005.0
20260505050853 71 234 3.0 8.0 0.00 0.00 0.00 33 1005.0
20260505050753 71 257 3.0 8.0 0.00 0.00 0.00 33 1005.0
20260505050647 71 231 3.0 8.0 0.00 0.00 0.00 33 1004.9
20260505050550 71 248 2.0 8.0 0.00 0.00 0.00 33 1004.9
20260505050450 71 250 2.0 8.0 0.00 0.00 0.00 33 1004.9
20260505050337 71 221 2.0 8.0 0.00 0.00 0.00 33 1004.9
20260505050239 71 244 2.0 8.0 0.00 0.00 0.00 33 1004.9
20260505050139 71 241 2.0 8.0 0.00 0.00 0.00 33 1004.9
20260505041704 74 257 2.0 8.0 0.00 0.00 0.00 26 1005.4
20260505041552 74 232 2.0 8.0 0.00 0.00 0.00 26 1005.5
20260505041450 74 246 2.0 8.0 0.00 0.00 0.00 26 1005.5
20260505041349 74 240 2.0 6.0 0.00 0.00 0.00 26 1005.5
20260505041244 74 254 2.0 7.0 0.00 0.00 0.00 26 1005.5
20260505041148 74 259 2.0 7.0 0.00 0.00 0.00 26 1005.9
20260505041041 74 231 2.0 7.0 0.00 0.00 0.00 26 1005.9
20260505040942 74 184 3.0 7.0 0.00 0.00 0.00 26 1005.9
20260505040842 74 235 3.0 7.0 0.00 0.00 0.00 26 1006.0
20260505040731 74 275 3.0 7.0 0.00 0.00 0.00 26 1006.0
20260505040632 74 230 3.0 7.0 0.00 0.00 0.00 25 1006.0
20260505040535 74 258 3.0 7.0 0.00 0.00 0.00 25 1006.0
20260505040430 74 246 3.0 7.0 0.00 0.00 0.00 25 1006.0
20260505040329 74 233 3.0 7.0 0.00 0.00 0.00 25 1006.0
20260505040228 75 226 2.0 7.0 0.00 0.00 0.00 25 1006.0
20260505040135 75 169 2.0 7.0 0.00 0.00 0.00 25 1006.0
20260505040033 75 242 2.0 7.0 0.00 0.00 0.00 25 1006.0
20260505035929 75 241 2.0 7.0 0.00 0.00 0.00 25 1006.0
20260505035830 74 244 2.0 9.0 0.00 0.00 0.00 25 1006.0
20260505035722 75 244 2.0 9.0 0.00 0.00 0.00 25 1005.7
20260505035618 75 246 2.0 9.0 0.00 0.00 0.00 25 1005.7
20260505035516 75 278 3.0 9.0 0.00 0.00 0.00 25 1005.7
20260505035413 75 239 3.0 9.0 0.00 0.00 0.00 25 1005.7
20260505035316 75 259 3.0 9.0 0.00 0.00 0.00 25 1005.7
20260505035221 75 242 3.0 9.0 0.00 0.00 0.00 24 1005.7
20260505035108 75 254 3.0 9.0 0.00 0.00 0.00 24 1005.7
20260505035010 75 271 3.0 9.0 0.00 0.00 0.00 24 1005.7
20260505034907 75 229 3.0 9.0 0.00 0.00 0.00 24 1005.7
20260505034809 75 244 3.0 9.0 0.00 0.00 0.00 24 1005.7
20260505034708 75 251 4.0 9.0 0.00 0.00 0.00 24 1005.7
20260505034606 75 252 4.0 9.0 0.00 0.00 0.00 24 1005.7
20260505034503 75 218 4.0 11.0 0.00 0.00 0.00 24 1005.8
20260505034352 75 260 4.0 11.0 0.00 0.00 0.00 24 1005.8
20260505034252 75 212 4.0 11.0 0.00 0.00 0.00 24 1005.8
20260505034155 75 270 4.0 11.0 0.00 0.00 0.00 24 1005.6
20260505034047 75 246 5.0 11.0 0.00 0.00 0.00 24 1005.6
20260505033945 75 254 5.0 11.0 0.00 0.00 0.00 24 1005.6
20260505033844 75 254 5.0 11.0 0.00 0.00 0.00 24 1005.6
20260505033737 75 256 5.0 11.0 0.00 0.00 0.00 24 1005.6
20260505033639 75 223 5.0 12.0 0.00 0.00 0.00 24 1005.6
20260505033544 75 254 5.0 12.0 0.00 0.00 0.00 24 1005.6
20260505033439 75 233 5.0 12.0 0.00 0.00 0.00 24 1005.6
20260505033338 75 238 5.0 12.0 0.00 0.00 0.00 24 1005.6
20260505033237 75 246 5.0 12.0 0.00 0.00 0.00 24 1005.5
20260505033136 75 242 4.0 12.0 0.00 0.00 0.00 24 1005.5
20260505033034 74 267 3.0 12.0 0.00 0.00 0.00 24 1005.5
20260505032943 74 251 3.0 12.0 0.00 0.00 0.00 25 1005.4
20260505032841 74 236 2.0 12.0 0.00 0.00 0.00 25 1005.4
20260505032740 74 242 1.0 12.0 0.00 0.00 0.00 26 1004.8
20260505032632 73 221 1.0 8.0 0.00 0.00 0.00 27 1004.8
20260505032533 73 255 0.0 7.0 0.00 0.00 0.00 27 1004.7
20260505032430 73 221 0.0 7.0 0.00 0.00 0.00 28 1004.7
20260505032332 73 254 0.0 5.0 0.00 0.00 0.00 28 1004.7
20260505032237 73 246 0.0 5.0 0.00 0.00 0.00 28 1004.7
20260505032130 73 219 0.0 5.0 0.00 0.00 0.00 28 1004.7
20260505032100 73 251 0.0 5.0 0.00 0.00 0.00 28 1004.7
20260505031927 73 200 0.0 5.0 0.00 0.00 0.00 28 1004.8
20260505031810 73 221 0.0 5.0 0.00 0.00 0.00 28 1004.8
20260505031707 74 204 0.0 1.0 0.00 0.00 0.00 27 1004.8
20260505031612 74 232 0.0 5.0 0.00 0.00 0.00 27 1004.9
20260505031511 74 241 0.0 5.0 0.00 0.00 0.00 26 1004.9
20260505031416 74 234 0.0 5.0 0.00 0.00 0.00 26 1004.9
20260505031310 74 232 0.0 5.0 0.00 0.00 0.00 26 1004.9
20260505031211 74 232 0.0 5.0 0.00 0.00 0.00 26 1005.6
20260505031113 74 222 0.0 5.0 0.00 0.00 0.00 26 1005.6
20260505031034 74 222 0.0 5.0 0.00 0.00 0.00 26 1005.6
20260505030913 74 221 0.0 5.0 0.00 0.00 0.00 26 1005.6
20260505030757 74 233 0.0 5.0 0.00 0.00 0.00 26 1005.6
20260505030652 74 248 0.0 4.0 0.00 0.00 0.00 26 1005.6
20260505030550 74 272 0.0 1.0 0.00 0.00 0.00 26 1005.6
20260505030445 74 246 0.0 1.0 0.00 0.00 0.00 27 1005.6
20260505030338 74 246 0.0 2.0 0.00 0.00 0.00 27 1005.6
20260505030238 74 259 0.0 2.0 0.00 0.00 0.00 27 1005.7
20260505030139 74 259 0.0 2.0 0.00 0.00 0.00 27 1005.7
20260505030034 74 259 0.0 2.0 0.00 0.00 0.00 27 1005.7
20260505025936 74 260 0.0 2.0 0.00 0.00 0.00 27 1005.7
20260505025837 74 267 0.0 2.0 0.00 0.00 0.00 27 1005.7
20260505025738 74 273 0.0 2.0 0.00 0.00 0.00 26 1005.6
20260505025641 75 279 0.0 4.0 0.00 0.00 0.00 26 1005.6